| time (UTC) | temp F | wind direction | speed MPH | gust MPH | rain 1hr in | rain 24hr in | rain mn in | humidity % | barometer mb |
| 20260906075825 | 59 | 304 | 1.0 | 4.0 | 0.00 | 0.00 | 0.00 | 71 | 1014.5 |
| 20260906075724 | 59 | 266 | 1.0 | 4.0 | 0.00 | 0.00 | 0.00 | 71 | 1014.4 |
| 20260906075624 | 59 | 284 | 2.0 | 4.0 | 0.00 | 0.00 | 0.00 | 71 | 1014.5 |
| 20260906075541 | 59 | 283 | 2.0 | 4.0 | 0.00 | 0.00 | 0.00 | 71 | 1014.5 |
| 20260906075502 | 59 | 267 | 2.0 | 4.0 | 0.00 | 0.00 | 0.00 | 71 | 1014.4 |
| 20260906075438 | 59 | 253 | 2.0 | 4.0 | 0.00 | 0.00 | 0.00 | 72 | 1014.4 |
| 20260906075416 | 59 | 257 | 2.0 | 4.0 | 0.00 | 0.00 | 0.00 | 72 | 1014.4 |
| 20260906075356 | 59 | 245 | 2.0 | 4.0 | 0.00 | 0.00 | 0.00 | 72 | 1014.4 |
| 20260906075333 | 59 | 260 | 2.0 | 3.0 | 0.00 | 0.00 | 0.00 | 72 | 1014.4 |
| 20260906075258 | 59 | 271 | 2.0 | 3.0 | 0.00 | 0.00 | 0.00 | 72 | 1014.4 |
| 20260906075236 | 59 | 270 | 2.0 | 3.0 | 0.00 | 0.00 | 0.00 | 72 | 1014.4 |
| 20260906075214 | 59 | 268 | 2.0 | 3.0 | 0.00 | 0.00 | 0.00 | 72 | 1014.4 |
| 20260906075152 | 59 | 273 | 1.0 | 4.0 | 0.00 | 0.00 | 0.00 | 72 | 1014.4 |
| 20260906075131 | 59 | 277 | 0.0 | 4.0 | 0.00 | 0.00 | 0.00 | 72 | 1014.4 |
| 20260906075054 | 59 | 263 | 0.0 | 4.0 | 0.00 | 0.00 | 0.00 | 72 | 1014.4 |
| 20260906074808 | 59 | 263 | 0.0 | 4.0 | 0.00 | 0.00 | 0.00 | 72 | 1014.4 |
| 20260906074748 | 59 | 263 | 1.0 | 4.0 | 0.00 | 0.00 | 0.00 | 72 | 1014.4 |
| 20260906074442 | 59 | 260 | 2.0 | 4.0 | 0.00 | 0.00 | 0.00 | 72 | 1014.3 |
| 20260906074420 | 59 | 279 | 2.0 | 4.0 | 0.00 | 0.00 | 0.00 | 72 | 1014.4 |
| 20260906074129 | 59 | 274 | 2.0 | 4.0 | 0.00 | 0.00 | 0.00 | 72 | 1014.4 |
| 20260906074110 | 59 | 264 | 2.0 | 3.0 | 0.00 | 0.00 | 0.00 | 72 | 1014.3 |
| 20260906074033 | 59 | 256 | 1.0 | 3.0 | 0.00 | 0.00 | 0.00 | 72 | 1014.4 |
| 20260906072952 | 59 | 175 | 0.0 | 1.0 | 0.00 | 0.00 | 0.00 | 72 | 1014.4 |
| 20260906072932 | 59 | 175 | 0.0 | 2.0 | 0.00 | 0.00 | 0.00 | 72 | 1014.4 |
| 20260906072605 | 59 | 175 | 0.0 | 3.0 | 0.00 | 0.00 | 0.00 | 71 | 1014.5 |
| 20260906072504 | 59 | 175 | 0.0 | 3.0 | 0.00 | 0.00 | 0.00 | 71 | 1014.5 |
| 20260906072401 | 60 | 175 | 0.0 | 3.0 | 0.00 | 0.00 | 0.00 | 71 | 1014.5 |
| 20260906072337 | 60 | 175 | 0.0 | 3.0 | 0.00 | 0.00 | 0.00 | 71 | 1014.5 |
| 20260906072317 | 60 | 175 | 0.0 | 3.0 | 0.00 | 0.00 | 0.00 | 71 | 1014.5 |
| 20260906072258 | 60 | 175 | 1.0 | 3.0 | 0.00 | 0.00 | 0.00 | 71 | 1014.5 |
| 20260906071952 | 60 | 176 | 1.0 | 3.0 | 0.00 | 0.00 | 0.00 | 70 | 1014.5 |
| 20260906071931 | 60 | 174 | 1.0 | 3.0 | 0.00 | 0.00 | 0.00 | 71 | 1014.5 |
| 20260906071600 | 60 | 348 | 0.0 | 0.0 | 0.00 | 0.00 | 0.00 | 70 | 1014.6 |
| 20260906071503 | 60 | 348 | 0.0 | 0.0 | 0.00 | 0.00 | 0.00 | 71 | 1014.6 |
| 20260906071401 | 60 | 348 | 0.0 | 0.0 | 0.00 | 0.00 | 0.00 | 70 | 1014.6 |
| 20260906071302 | 60 | 348 | 0.0 | 0.0 | 0.00 | 0.00 | 0.00 | 70 | 1014.6 |
| 20260906071202 | 60 | 348 | 0.0 | 0.0 | 0.00 | 0.00 | 0.00 | 70 | 1014.6 |
| 20260906071103 | 60 | 348 | 0.0 | 0.0 | 0.00 | 0.00 | 0.00 | 70 | 1014.6 |
| 20260906071001 | 60 | 348 | 0.0 | 0.0 | 0.00 | 0.00 | 0.00 | 69 | 1014.7 |
| 20260906070901 | 60 | 348 | 0.0 | 0.0 | 0.00 | 0.00 | 0.00 | 69 | 1014.6 |
| 20260906070801 | 60 | 348 | 0.0 | 0.0 | 0.00 | 0.00 | 0.00 | 69 | 1014.7 |
| 20260906070650 | 60 | 348 | 0.0 | 0.0 | 0.00 | 0.00 | 0.00 | 69 | 1014.7 |
| 20260906070533 | 60 | 348 | 0.0 | 0.0 | 0.00 | 0.00 | 0.00 | 69 | 1014.6 |
| 20260906070431 | 60 | 348 | 0.0 | 0.0 | 0.00 | 0.00 | 0.00 | 69 | 1014.6 |
| 20260906070329 | 60 | 348 | 0.0 | 0.0 | 0.00 | 0.00 | 0.00 | 69 | 1014.6 |
| 20260906070229 | 60 | 348 | 0.0 | 3.0 | 0.00 | 0.00 | 0.00 | 69 | 1014.6 |
| 20260906070129 | 61 | 348 | 0.0 | 3.0 | 0.00 | 0.00 | 0.00 | 69 | 1014.6 |
| 20260906070030 | 61 | 348 | 0.0 | 3.0 | 0.00 | 0.00 | 0.00 | 69 | 1014.6 |
| 20260906065926 | 61 | 348 | 0.0 | 3.0 | 0.00 | 0.00 | 0.00 | 69 | 1014.6 |
| 20260906065820 | 61 | 348 | 0.0 | 3.0 | 0.00 | 0.00 | 0.00 | 69 | 1014.6 |
| 20260906065720 | 61 | 348 | 0.0 | 3.0 | 0.00 | 0.00 | 0.00 | 69 | 1014.5 |
| 20260906065633 | 61 | 348 | 0.0 | 3.0 | 0.00 | 0.00 | 0.00 | 69 | 1014.5 |
| 20260906065613 | 60 | 348 | 0.0 | 3.0 | 0.00 | 0.00 | 0.00 | 69 | 1014.4 |
| 20260906065552 | 60 | 348 | 1.0 | 3.0 | 0.00 | 0.00 | 0.00 | 69 | 1014.5 |
| 20260906065241 | 60 | 341 | 1.0 | 3.0 | 0.00 | 0.00 | 0.00 | 69 | 1014.4 |
| 20260906065219 | 60 | 311 | 1.0 | 2.0 | 0.00 | 0.00 | 0.00 | 69 | 1014.5 |
| 20260906065157 | 60 | 293 | 1.0 | 2.0 | 0.00 | 0.00 | 0.00 | 69 | 1014.4 |
| 20260906065138 | 60 | 300 | 1.0 | 3.0 | 0.00 | 0.00 | 0.00 | 69 | 1014.5 |
| 20260906065059 | 60 | 303 | 0.0 | 3.0 | 0.00 | 0.00 | 0.00 | 69 | 1014.5 |
| 20260906064501 | 60 | 310 | 1.0 | 3.0 | 0.00 | 0.00 | 0.00 | 69 | 1014.6 |
| 20260906064410 | 60 | 293 | 1.0 | 4.0 | 0.00 | 0.00 | 0.00 | 69 | 1014.6 |
| 20260906064301 | 60 | 288 | 1.0 | 4.0 | 0.00 | 0.00 | 0.00 | 69 | 1014.6 |
| 20260906064234 | 60 | 313 | 1.0 | 4.0 | 0.00 | 0.00 | 0.00 | 69 | 1014.6 |
| 20260906064212 | 60 | 281 | 2.0 | 4.0 | 0.00 | 0.00 | 0.00 | 69 | 1014.6 |
| 20260906064150 | 60 | 266 | 1.0 | 4.0 | 0.00 | 0.00 | 0.00 | 68 | 1014.6 |
| 20260906064129 | 60 | 258 | 1.0 | 4.0 | 0.00 | 0.00 | 0.00 | 69 | 1014.6 |
| 20260906063821 | 60 | 279 | 2.0 | 4.0 | 0.00 | 0.00 | 0.00 | 69 | 1014.6 |
| 20260906063801 | 60 | 277 | 2.0 | 4.0 | 0.00 | 0.00 | 0.00 | 69 | 1014.6 |
| 20260906063740 | 60 | 274 | 2.0 | 4.0 | 0.00 | 0.00 | 0.00 | 69 | 1014.5 |
| 20260906063431 | 60 | 259 | 2.0 | 3.0 | 0.00 | 0.00 | 0.00 | 68 | 1014.5 |
| 20260906063100 | 60 | 265 | 1.0 | 3.0 | 0.00 | 0.00 | 0.00 | 68 | 1014.6 |
| 20260906063002 | 60 | 265 | 1.0 | 3.0 | 0.00 | 0.00 | 0.00 | 68 | 1014.5 |
| 20260906062905 | 60 | 274 | 2.0 | 3.0 | 0.00 | 0.00 | 0.00 | 68 | 1014.6 |
| 20260906062802 | 60 | 267 | 2.0 | 3.0 | 0.00 | 0.00 | 0.00 | 68 | 1014.6 |
| 20260906062701 | 60 | 271 | 1.0 | 2.0 | 0.00 | 0.00 | 0.00 | 68 | 1014.6 |
| 20260906062601 | 61 | 263 | 1.0 | 2.0 | 0.00 | 0.00 | 0.00 | 68 | 1014.6 |
| 20260906062525 | 61 | 271 | 1.0 | 2.0 | 0.00 | 0.00 | 0.00 | 68 | 1014.6 |
| 20260906062501 | 61 | 261 | 1.0 | 2.0 | 0.00 | 0.00 | 0.00 | 68 | 1014.7 |
| 20260906062425 | 61 | 265 | 0.0 | 4.0 | 0.00 | 0.00 | 0.00 | 68 | 1014.7 |
| 20260906062403 | 61 | 244 | 0.0 | 4.0 | 0.00 | 0.00 | 0.00 | 68 | 1014.6 |
| 20260906062110 | 61 | 182 | 0.0 | 4.0 | 0.00 | 0.00 | 0.00 | 67 | 1014.7 |
| 20260906062051 | 61 | 180 | 0.0 | 4.0 | 0.00 | 0.00 | 0.00 | 67 | 1014.7 |
| 20260906061703 | 61 | 180 | 1.0 | 4.0 | 0.00 | 0.00 | 0.00 | 67 | 1014.6 |
| 20260906061600 | 61 | 178 | 1.0 | 4.0 | 0.00 | 0.00 | 0.00 | 67 | 1014.6 |
| 20260906061500 | 61 | 190 | 1.0 | 4.0 | 0.00 | 0.00 | 0.00 | 67 | 1014.6 |
| 20260906061403 | 61 | 186 | 1.0 | 4.0 | 0.00 | 0.00 | 0.00 | 67 | 1014.6 |
| 20260906061301 | 61 | 184 | 1.0 | 3.0 | 0.00 | 0.00 | 0.00 | 67 | 1014.6 |
| 20260906061201 | 61 | 181 | 2.0 | 3.0 | 0.00 | 0.00 | 0.00 | 67 | 1014.6 |
| 20260906061102 | 61 | 178 | 2.0 | 3.0 | 0.00 | 0.00 | 0.00 | 67 | 1014.6 |
| 20260906061001 | 61 | 186 | 1.0 | 3.0 | 0.00 | 0.00 | 0.00 | 67 | 1014.6 |
| 20260906060902 | 61 | 161 | 1.0 | 3.0 | 0.00 | 0.00 | 0.00 | 67 | 1014.6 |
| 20260906060801 | 61 | 187 | 0.0 | 3.0 | 0.00 | 0.00 | 0.00 | 67 | 1014.6 |
| 20260906060702 | 61 | 244 | 1.0 | 3.0 | 0.00 | 0.00 | 0.00 | 67 | 1014.7 |
| 20260906060601 | 62 | 242 | 1.0 | 3.0 | 0.00 | 0.00 | 0.00 | 66 | 1014.6 |
| 20260906060535 | 62 | 246 | 0.0 | 2.0 | 0.00 | 0.00 | 0.00 | 67 | 1014.6 |
| 20260906060509 | 62 | 269 | 0.0 | 2.0 | 0.00 | 0.00 | 0.00 | 67 | 1014.7 |
| 20260906060433 | 62 | 272 | 0.0 | 2.0 | 0.00 | 0.00 | 0.00 | 67 | 1014.7 |
| 20260906060411 | 62 | 265 | 0.0 | 2.0 | 0.00 | 0.00 | 0.00 | 67 | 1014.7 |
| 20260906060120 | 62 | 259 | 0.0 | 2.0 | 0.00 | 0.00 | 0.00 | 67 | 1014.7 |
| 20260906055736 | 62 | 249 | 1.0 | 2.0 | 0.00 | 0.00 | 0.00 | 67 | 1014.7 |
| 20260906055634 | 62 | 248 | 1.0 | 2.0 | 0.00 | 0.00 | 0.00 | 67 | 1014.7 |
| 20260906055607 | 62 | 252 | 0.0 | 2.0 | 0.00 | 0.00 | 0.00 | 67 | 1014.8 |
| 20260906055545 | 62 | 122 | 0.0 | 0.0 | 0.00 | 0.00 | 0.00 | 67 | 1014.7 |
| 20260906055510 | 62 | 122 | 0.0 | 0.0 | 0.00 | 0.00 | 0.00 | 68 | 1014.8 |
| 20260906055216 | 62 | 122 | 0.0 | 0.0 | 0.00 | 0.00 | 0.00 | 68 | 1014.8 |
| 20260906055157 | 62 | 122 | 0.0 | 0.0 | 0.00 | 0.00 | 0.00 | 68 | 1014.7 |
| 20260906054833 | 62 | 122 | 0.0 | 0.0 | 0.00 | 0.00 | 0.00 | 68 | 1014.8 |
| 20260906054729 | 62 | 122 | 0.0 | 0.0 | 0.00 | 0.00 | 0.00 | 68 | 1014.8 |
| 20260906054632 | 62 | 122 | 0.0 | 0.0 | 0.00 | 0.00 | 0.00 | 68 | 1014.9 |
| 20260906054530 | 62 | 122 | 0.0 | 0.0 | 0.00 | 0.00 | 0.00 | 67 | 1014.9 |
| 20260906054430 | 62 | 122 | 0.0 | 0.0 | 0.00 | 0.00 | 0.00 | 67 | 1014.9 |
| 20260906054402 | 62 | 122 | 0.0 | 0.0 | 0.00 | 0.00 | 0.00 | 67 | 1014.9 |
| 20260906054324 | 62 | 122 | 0.0 | 0.0 | 0.00 | 0.00 | 0.00 | 67 | 1014.9 |
| 20260906054305 | 62 | 122 | 0.0 | 0.0 | 0.00 | 0.00 | 0.00 | 67 | 1014.9 |
| 20260906054244 | 62 | 122 | 0.0 | 0.0 | 0.00 | 0.00 | 0.00 | 67 | 1014.9 |
| 20260906053938 | 63 | 122 | 0.0 | 0.0 | 0.00 | 0.00 | 0.00 | 67 | 1015.0 |
| 20260906053606 | 63 | 122 | 0.0 | 0.0 | 0.00 | 0.00 | 0.00 | 66 | 1015.0 |
| 20260906053502 | 63 | 122 | 0.0 | 0.0 | 0.00 | 0.00 | 0.00 | 66 | 1014.9 |
| 20260906053440 | 63 | 122 | 0.0 | 0.0 | 0.00 | 0.00 | 0.00 | 66 | 1014.9 |
| 20260906053404 | 63 | 122 | 0.0 | 0.0 | 0.00 | 0.00 | 0.00 | 66 | 1014.8 |
| 20260906053343 | 63 | 122 | 0.0 | 0.0 | 0.00 | 0.00 | 0.00 | 66 | 1014.8 |
| 20260906053324 | 63 | 122 | 0.0 | 0.0 | 0.00 | 0.00 | 0.00 | 66 | 1014.8 |
| 20260906053306 | 63 | 122 | 0.0 | 0.0 | 0.00 | 0.00 | 0.00 | 66 | 1014.8 |
| 20260906053244 | 63 | 122 | 0.0 | 0.0 | 0.00 | 0.00 | 0.00 | 65 | 1014.8 |
| 20260906053212 | 63 | 122 | 0.0 | 0.0 | 0.00 | 0.00 | 0.00 | 65 | 1014.8 |
| 20260906053154 | 63 | 122 | 0.0 | 0.0 | 0.00 | 0.00 | 0.00 | 65 | 1014.8 |
| 20260906052905 | 63 | 122 | 0.0 | 0.0 | 0.00 | 0.00 | 0.00 | 65 | 1014.8 |
| 20260906052845 | 63 | 122 | 0.0 | 0.0 | 0.00 | 0.00 | 0.00 | 65 | 1014.8 |
| 20260906052312 | 63 | 122 | 0.0 | 0.0 | 0.00 | 0.00 | 0.00 | 65 | 1014.8 |
| 20260906052254 | 63 | 122 | 0.0 | 0.0 | 0.00 | 0.00 | 0.00 | 65 | 1014.8 |
| 20260906052234 | 63 | 122 | 0.0 | 0.0 | 0.00 | 0.00 | 0.00 | 65 | 1014.8 |
| 20260906052159 | 63 | 122 | 0.0 | 0.0 | 0.00 | 0.00 | 0.00 | 65 | 1014.8 |
| 20260906051911 | 64 | 122 | 0.0 | 0.0 | 0.00 | 0.00 | 0.00 | 65 | 1014.9 |
| 20260906051852 | 64 | 122 | 0.0 | 0.0 | 0.00 | 0.00 | 0.00 | 65 | 1014.9 |
| 20260906051833 | 64 | 122 | 0.0 | 0.0 | 0.00 | 0.00 | 0.00 | 65 | 1014.9 |
| 20260906051525 | 64 | 122 | 0.0 | 0.0 | 0.00 | 0.00 | 0.00 | 65 | 1014.9 |
| 20260906051233 | 64 | 122 | 0.0 | 0.0 | 0.00 | 0.00 | 0.00 | 65 | 1014.9 |
| 20260906051212 | 64 | 122 | 0.0 | 0.0 | 0.00 | 0.00 | 0.00 | 65 | 1014.9 |
| 20260906050632 | 64 | 122 | 0.0 | 0.0 | 0.00 | 0.00 | 0.00 | 64 | 1014.9 |
| 20260906050612 | 64 | 122 | 0.0 | 0.0 | 0.00 | 0.00 | 0.00 | 64 | 1014.8 |
| 20260906050550 | 64 | 122 | 0.0 | 0.0 | 0.00 | 0.00 | 0.00 | 64 | 1014.8 |
| 20260906050242 | 64 | 122 | 0.0 | 0.0 | 0.00 | 0.00 | 0.00 | 64 | 1014.9 |
| 20260906050223 | 65 | 122 | 0.0 | 0.0 | 0.00 | 0.00 | 0.00 | 64 | 1014.9 |
| 20260906050204 | 65 | 122 | 0.0 | 0.0 | 0.00 | 0.00 | 0.00 | 64 | 1014.9 |
| 20260906050141 | 65 | 122 | 0.0 | 0.0 | 0.00 | 0.00 | 0.00 | 63 | 1014.9 |
| 20260906045529 | 65 | 122 | 0.0 | 0.0 | 0.00 | 0.00 | 0.00 | 63 | 1015.0 |
| 20260906045455 | 65 | 122 | 0.0 | 0.0 | 0.00 | 0.00 | 0.00 | 63 | 1015.0 |
| 20260906045434 | 65 | 122 | 0.0 | 0.0 | 0.00 | 0.00 | 0.00 | 63 | 1014.9 |
| 20260906045359 | 65 | 122 | 0.0 | 0.0 | 0.00 | 0.00 | 0.00 | 63 | 1014.9 |
| 20260906045032 | 65 | 122 | 0.0 | 0.0 | 0.00 | 0.00 | 0.00 | 63 | 1015.0 |
| 20260906044930 | 65 | 122 | 0.0 | 0.0 | 0.00 | 0.00 | 0.00 | 62 | 1015.0 |
| 20260906044832 | 65 | 122 | 0.0 | 0.0 | 0.00 | 0.00 | 0.00 | 63 | 1015.0 |
| 20260906044730 | 65 | 122 | 0.0 | 0.0 | 0.00 | 0.00 | 0.00 | 63 | 1015.0 |
| 20260906044704 | 65 | 122 | 0.0 | 0.0 | 0.00 | 0.00 | 0.00 | 62 | 1015.0 |
| 20260906044644 | 65 | 122 | 0.0 | 0.0 | 0.00 | 0.00 | 0.00 | 62 | 1015.0 |
| 20260906044626 | 65 | 122 | 0.0 | 1.0 | 0.00 | 0.00 | 0.00 | 62 | 1015.1 |
| 20260906044605 | 65 | 122 | 0.0 | 1.0 | 0.00 | 0.00 | 0.00 | 62 | 1015.1 |
| 20260906044301 | 65 | 122 | 0.0 | 2.0 | 0.00 | 0.00 | 0.00 | 62 | 1015.0 |
| 20260906043944 | 66 | 122 | 0.0 | 2.0 | 0.00 | 0.00 | 0.00 | 62 | 1015.0 |
| 20260906043925 | 66 | 122 | 0.0 | 2.0 | 0.00 | 0.00 | 0.00 | 62 | 1014.9 |
| 20260906043846 | 66 | 122 | 0.0 | 2.0 | 0.00 | 0.00 | 0.00 | 62 | 1014.9 |
| 20260906043829 | 66 | 122 | 0.0 | 2.0 | 0.00 | 0.00 | 0.00 | 62 | 1014.9 |
| 20260906043805 | 66 | 122 | 0.0 | 2.0 | 0.00 | 0.00 | 0.00 | 61 | 1015.0 |
| 20260906043517 | 66 | 123 | 1.0 | 2.0 | 0.00 | 0.00 | 0.00 | 61 | 1014.9 |
| 20260906043146 | 66 | 134 | 1.0 | 2.0 | 0.00 | 0.00 | 0.00 | 61 | 1014.9 |
| 20260906043125 | 66 | 144 | 0.0 | 2.0 | 0.00 | 0.00 | 0.00 | 60 | 1015.0 |
| 20260906043101 | 66 | 180 | 0.0 | 1.0 | 0.00 | 0.00 | 0.00 | 60 | 1015.0 |
| 20260906043041 | 66 | 257 | 0.0 | 1.0 | 0.00 | 0.00 | 0.00 | 60 | 1014.9 |
| 20260906043004 | 67 | 259 | 0.0 | 2.0 | 0.00 | 0.00 | 0.00 | 60 | 1014.9 |
| 20260906042944 | 67 | 259 | 0.0 | 3.0 | 0.00 | 0.00 | 0.00 | 60 | 1015.0 |
| 20260906042924 | 67 | 259 | 0.0 | 3.0 | 0.00 | 0.00 | 0.00 | 60 | 1014.9 |
| 20260906042904 | 67 | 259 | 0.0 | 3.0 | 0.00 | 0.00 | 0.00 | 60 | 1015.0 |
| 20260906042849 | 67 | 259 | 0.0 | 3.0 | 0.00 | 0.00 | 0.00 | 60 | 1014.9 |
| 20260906042548 | 67 | 260 | 0.0 | 3.0 | 0.00 | 0.00 | 0.00 | 60 | 1015.0 |
| 20260906042527 | 67 | 260 | 1.0 | 3.0 | 0.00 | 0.00 | 0.00 | 59 | 1014.9 |
| 20260906042238 | 67 | 259 | 2.0 | 3.0 | 0.00 | 0.00 | 0.00 | 59 | 1015.0 |
| 20260906041930 | 67 | 261 | 1.0 | 4.0 | 0.00 | 0.00 | 0.00 | 59 | 1014.9 |
| 20260906041330 | 67 | 265 | 1.0 | 4.0 | 0.00 | 0.00 | 0.00 | 59 | 1014.9 |
| 20260906041230 | 67 | 256 | 2.0 | 4.0 | 0.00 | 0.00 | 0.00 | 59 | 1014.9 |
| 20260906041143 | 67 | 265 | 2.0 | 4.0 | 0.00 | 0.00 | 0.00 | 59 | 1014.9 |
| 20260906041122 | 67 | 257 | 2.0 | 4.0 | 0.00 | 0.00 | 0.00 | 59 | 1014.9 |
| 20260906041100 | 67 | 255 | 2.0 | 4.0 | 0.00 | 0.00 | 0.00 | 59 | 1014.9 |
| 20260906040729 | 67 | 263 | 2.0 | 4.0 | 0.00 | 0.00 | 0.00 | 59 | 1014.9 |
| 20260906040633 | 67 | 243 | 2.0 | 4.0 | 0.00 | 0.00 | 0.00 | 59 | 1014.8 |
| 20260906040530 | 67 | 259 | 2.0 | 4.0 | 0.00 | 0.00 | 0.00 | 59 | 1014.9 |
| 20260906040430 | 67 | 259 | 2.0 | 4.0 | 0.00 | 0.00 | 0.00 | 59 | 1014.8 |
| 20260906040331 | 67 | 252 | 2.0 | 4.0 | 0.00 | 0.00 | 0.00 | 59 | 1014.8 |
| 20260906040230 | 67 | 311 | 1.0 | 4.0 | 0.00 | 0.00 | 0.00 | 59 | 1014.9 |
| 20260906040131 | 67 | 277 | 2.0 | 4.0 | 0.00 | 0.00 | 0.00 | 59 | 1014.9 |
| 20260906040030 | 67 | 269 | 2.0 | 4.0 | 0.00 | 0.00 | 0.00 | 59 | 1014.8 |
| 20260906035944 | 67 | 261 | 2.0 | 4.0 | 0.00 | 0.00 | 0.00 | 59 | 1014.9 |
| 20260906035923 | 67 | 262 | 2.0 | 4.0 | 0.00 | 0.00 | 0.00 | 59 | 1014.8 |
| 20260906035847 | 67 | 263 | 1.0 | 3.0 | 0.00 | 0.00 | 0.00 | 59 | 1014.9 |
| 20260906035826 | 67 | 273 | 0.0 | 3.0 | 0.00 | 0.00 | 0.00 | 59 | 1014.9 |
| 20260906035808 | 67 | 269 | 0.0 | 3.0 | 0.00 | 0.00 | 0.00 | 58 | 1014.9 |
| 20260906035519 | 67 | 269 | 0.0 | 3.0 | 0.00 | 0.00 | 0.00 | 58 | 1014.9 |
| 20260906035121 | 67 | 258 | 0.0 | 3.0 | 0.00 | 0.00 | 0.00 | 58 | 1014.9 |
| 20260906035021 | 67 | 257 | 0.0 | 2.0 | 0.00 | 0.00 | 0.00 | 58 | 1014.9 |
| 20260906034913 | 67 | 257 | 0.0 | 2.0 | 0.00 | 0.00 | 0.00 | 58 | 1014.9 |
| 20260906034852 | 67 | 257 | 0.0 | 3.0 | 0.00 | 0.00 | 0.00 | 58 | 1014.9 |
| 20260906034817 | 67 | 257 | 0.0 | 4.0 | 0.00 | 0.00 | 0.00 | 58 | 1014.8 |
| 20260906034758 | 67 | 257 | 1.0 | 4.0 | 0.00 | 0.00 | 0.00 | 58 | 1014.8 |
| 20260906034738 | 67 | 257 | 1.0 | 4.0 | 0.00 | 0.00 | 0.00 | 58 | 1014.8 |
| 20260906034445 | 67 | 257 | 0.0 | 4.0 | 0.00 | 0.00 | 0.00 | 58 | 1014.8 |
| 20260906034101 | 68 | 250 | 1.0 | 4.0 | 0.00 | 0.00 | 0.00 | 58 | 1014.7 |
| 20260906034003 | 68 | 250 | 2.0 | 4.0 | 0.00 | 0.00 | 0.00 | 58 | 1014.7 |
| 20260906033900 | 68 | 257 | 2.0 | 4.0 | 0.00 | 0.00 | 0.00 | 57 | 1014.7 |
| 20260906033831 | 67 | 252 | 2.0 | 4.0 | 0.00 | 0.00 | 0.00 | 57 | 1014.7 |
| 20260906033752 | 68 | 268 | 2.0 | 4.0 | 0.00 | 0.00 | 0.00 | 57 | 1014.7 |
| 20260906033731 | 67 | 259 | 3.0 | 4.0 | 0.00 | 0.00 | 0.00 | 57 | 1014.7 |
| 20260906033402 | 67 | 271 | 1.0 | 4.0 | 0.00 | 0.00 | 0.00 | 57 | 1014.7 |
| 20260906033300 | 67 | 253 | 0.0 | 4.0 | 0.00 | 0.00 | 0.00 | 57 | 1014.8 |
| 20260906033202 | 67 | 280 | 2.0 | 4.0 | 0.00 | 0.00 | 0.00 | 56 | 1014.8 |
| 20260906033059 | 67 | 275 | 2.0 | 4.0 | 0.00 | 0.00 | 0.00 | 56 | 1014.7 |
| 20260906032959 | 67 | 275 | 1.0 | 4.0 | 0.00 | 0.00 | 0.00 | 55 | 1014.7 |
| 20260906032858 | 67 | 264 | 2.0 | 4.0 | 0.00 | 0.00 | 0.00 | 56 | 1014.7 |
| 20260906032758 | 67 | 277 | 2.0 | 4.0 | 0.00 | 0.00 | 0.00 | 55 | 1014.7 |
| 20260906032659 | 67 | 275 | 2.0 | 4.0 | 0.00 | 0.00 | 0.00 | 55 | 1014.6 |
| 20260906032611 | 67 | 251 | 2.0 | 2.0 | 0.00 | 0.00 | 0.00 | 56 | 1014.6 |
| 20260906032548 | 67 | 271 | 2.0 | 2.0 | 0.00 | 0.00 | 0.00 | 56 | 1014.7 |
| 20260906032526 | 67 | 242 | 2.0 | 2.0 | 0.00 | 0.00 | 0.00 | 56 | 1014.6 |
| 20260906032155 | 67 | 261 | 1.0 | 2.0 | 0.00 | 0.00 | 0.00 | 55 | 1014.5 |
| 20260906032134 | 68 | 255 | 0.0 | 2.0 | 0.00 | 0.00 | 0.00 | 54 | 1014.5 |
| 20260906032111 | 68 | 225 | 0.0 | 2.0 | 0.00 | 0.00 | 0.00 | 55 | 1014.5 |
| 20260906032051 | 68 | 107 | 0.0 | 1.0 | 0.00 | 0.00 | 0.00 | 55 | 1014.6 |
| 20260906031747 | 68 | 107 | 0.0 | 1.0 | 0.00 | 0.00 | 0.00 | 54 | 1014.5 |
| 20260906031727 | 68 | 107 | 0.0 | 1.0 | 0.00 | 0.00 | 0.00 | 54 | 1014.5 |
| 20260906031705 | 68 | 107 | 0.0 | 1.0 | 0.00 | 0.00 | 0.00 | 54 | 1014.5 |
| 20260906031643 | 68 | 107 | 0.0 | 1.0 | 0.00 | 0.00 | 0.00 | 54 | 1014.4 |
| 20260906031030 | 69 | 107 | 0.0 | 1.0 | 0.00 | 0.00 | 0.00 | 54 | 1014.4 |
| 20260906030929 | 69 | 107 | 0.0 | 1.0 | 0.00 | 0.00 | 0.00 | 53 | 1014.4 |
| 20260906030856 | 69 | 107 | 0.0 | 1.0 | 0.00 | 0.00 | 0.00 | 53 | 1014.4 |
| 20260906030832 | 69 | 107 | 0.0 | 1.0 | 0.00 | 0.00 | 0.00 | 52 | 1014.5 |
| 20260906030759 | 69 | 107 | 0.0 | 1.0 | 0.00 | 0.00 | 0.00 | 53 | 1014.4 |
| 20260906030429 | 69 | 107 | 0.0 | 1.0 | 0.00 | 0.00 | 0.00 | 52 | 1014.4 |
| 20260906030328 | 69 | 107 | 0.0 | 1.0 | 0.00 | 0.00 | 0.00 | 52 | 1014.4 |
| 20260906030236 | 69 | 107 | 0.0 | 1.0 | 0.00 | 0.00 | 0.00 | 51 | 1014.4 |
| 20260906030127 | 69 | 107 | 0.0 | 0.0 | 0.00 | 0.00 | 0.00 | 51 | 1014.4 |
| 20260906030025 | 69 | 107 | 0.0 | 0.0 | 0.00 | 0.00 | 0.00 | 51 | 1014.4 |
| 20260906025926 | 69 | 107 | 0.0 | 0.0 | 0.00 | 0.00 | 0.00 | 51 | 1014.4 |
| 20260906025820 | 70 | 107 | 0.0 | 0.0 | 0.00 | 0.00 | 0.00 | 51 | 1014.4 |
| 20260906025710 | 70 | 107 | 0.0 | 0.0 | 0.00 | 0.00 | 0.00 | 51 | 1014.4 |
| 20260906025606 | 70 | 107 | 0.0 | 0.0 | 0.00 | 0.00 | 0.00 | 51 | 1014.5 |
| 20260906025504 | 70 | 107 | 0.0 | 0.0 | 0.00 | 0.00 | 0.00 | 50 | 1014.4 |
| 20260906025401 | 70 | 107 | 0.0 | 0.0 | 0.00 | 0.00 | 0.00 | 50 | 1014.5 |
| 20260906025328 | 70 | 107 | 0.0 | 0.0 | 0.00 | 0.00 | 0.00 | 50 | 1014.4 |
| 20260906025250 | 70 | 107 | 0.0 | 0.0 | 0.00 | 0.00 | 0.00 | 50 | 1014.4 |
| 20260906025231 | 70 | 107 | 0.0 | 0.0 | 0.00 | 0.00 | 0.00 | 50 | 1014.4 |
| 20260906024904 | 70 | 107 | 0.0 | 0.0 | 0.00 | 0.00 | 0.00 | 49 | 1014.5 |
| 20260906024801 | 70 | 107 | 0.0 | 0.0 | 0.00 | 0.00 | 0.00 | 49 | 1014.4 |
| 20260906024701 | 71 | 107 | 0.0 | 0.0 | 0.00 | 0.00 | 0.00 | 49 | 1014.4 |
| 20260906024558 | 71 | 107 | 0.0 | 0.0 | 0.00 | 0.00 | 0.00 | 48 | 1014.4 |
| 20260906024456 | 71 | 107 | 0.0 | 1.0 | 0.00 | 0.00 | 0.00 | 48 | 1014.4 |
| 20260906024356 | 71 | 107 | 0.0 | 1.0 | 0.00 | 0.00 | 0.00 | 48 | 1014.4 |
| 20260906024255 | 71 | 107 | 0.0 | 1.0 | 0.00 | 0.00 | 0.00 | 48 | 1014.4 |
| 20260906024158 | 71 | 107 | 0.0 | 1.0 | 0.00 | 0.00 | 0.00 | 48 | 1014.4 |
| 20260906024123 | 71 | 107 | 0.0 | 1.0 | 0.00 | 0.00 | 0.00 | 47 | 1014.4 |
| 20260906024104 | 71 | 107 | 0.0 | 1.0 | 0.00 | 0.00 | 0.00 | 47 | 1014.3 |
| 20260906023735 | 71 | 107 | 0.0 | 1.0 | 0.00 | 0.00 | 0.00 | 47 | 1014.3 |
| 20260906023647 | 71 | 107 | 0.0 | 1.0 | 0.00 | 0.00 | 0.00 | 47 | 1014.3 |
| 20260906023627 | 71 | 107 | 0.0 | 1.0 | 0.00 | 0.00 | 0.00 | 46 | 1014.3 |
| 20260906023604 | 71 | 107 | 0.0 | 1.0 | 0.00 | 0.00 | 0.00 | 46 | 1014.3 |
| 20260906023545 | 71 | 107 | 1.0 | 1.0 | 0.00 | 0.00 | 0.00 | 46 | 1014.3 |
| 20260906023524 | 71 | 107 | 0.0 | 1.0 | 0.00 | 0.00 | 0.00 | 46 | 1014.3 |
| 20260906023449 | 72 | 107 | 0.0 | 1.0 | 0.00 | 0.00 | 0.00 | 46 | 1014.3 |
| 20260906023202 | 72 | 107 | 0.0 | 1.0 | 0.00 | 0.00 | 0.00 | 45 | 1014.3 |
| 20260906022913 | 72 | 107 | 0.0 | 1.0 | 0.00 | 0.00 | 0.00 | 45 | 1014.2 |
| 20260906022837 | 72 | 107 | 0.0 | 2.0 | 0.00 | 0.00 | 0.00 | 45 | 1014.2 |
| 20260906022546 | 72 | 107 | 0.0 | 2.0 | 0.00 | 0.00 | 0.00 | 45 | 1014.3 |
| 20260906022218 | 72 | 107 | 0.0 | 2.0 | 0.00 | 0.00 | 0.00 | 44 | 1014.2 |
| 20260906022113 | 72 | 107 | 0.0 | 2.0 | 0.00 | 0.00 | 0.00 | 45 | 1014.3 |
| 20260906022008 | 72 | 107 | 0.0 | 2.0 | 0.00 | 0.00 | 0.00 | 45 | 1014.3 |
| 20260906021904 | 72 | 107 | 1.0 | 2.0 | 0.00 | 0.00 | 0.00 | 44 | 1014.3 |
| 20260906021801 | 72 | 107 | 1.0 | 2.0 | 0.00 | 0.00 | 0.00 | 44 | 1014.3 |
| 20260906021716 | 73 | 107 | 0.0 | 2.0 | 0.00 | 0.00 | 0.00 | 44 | 1014.3 |
| 20260906021602 | 73 | 111 | 0.0 | 2.0 | 0.00 | 0.00 | 0.00 | 45 | 1014.3 |
| 20260906021523 | 73 | 111 | 0.0 | 2.0 | 0.00 | 0.00 | 0.00 | 45 | 1014.3 |
| 20260906021502 | 73 | 111 | 1.0 | 2.0 | 0.00 | 0.00 | 0.00 | 45 | 1014.3 |
| 20260906021443 | 73 | 111 | 1.0 | 2.0 | 0.00 | 0.00 | 0.00 | 44 | 1014.3 |
| 20260906021116 | 73 | 112 | 0.0 | 2.0 | 0.00 | 0.00 | 0.00 | 45 | 1014.3 |
| 20260906021052 | 73 | 113 | 1.0 | 2.0 | 0.00 | 0.00 | 0.00 | 45 | 1014.3 |
| 20260906021032 | 73 | 94 | 1.0 | 1.0 | 0.00 | 0.00 | 0.00 | 44 | 1014.3 |
| 20260906020710 | 73 | 88 | 1.0 | 1.0 | 0.00 | 0.00 | 0.00 | 44 | 1014.3 |
| 20260906020602 | 73 | 84 | 0.0 | 1.0 | 0.00 | 0.00 | 0.00 | 44 | 1014.3 |
| 20260906020502 | 73 | 78 | 0.0 | 1.0 | 0.00 | 0.00 | 0.00 | 44 | 1014.4 |
| 20260906020401 | 73 | 112 | 0.0 | 2.0 | 0.00 | 0.00 | 0.00 | 45 | 1014.3 |
| 20260906020303 | 73 | 112 | 0.0 | 2.0 | 0.00 | 0.00 | 0.00 | 45 | 1014.3 |
| 20260906020230 | 74 | 112 | 1.0 | 2.0 | 0.00 | 0.00 | 0.00 | 45 | 1014.3 |
| 20260906020154 | 74 | 112 | 0.0 | 2.0 | 0.00 | 0.00 | 0.00 | 44 | 1014.3 |
| 20260906020133 | 74 | 93 | 0.0 | 2.0 | 0.00 | 0.00 | 0.00 | 45 | 1014.3 |
| 20260906015801 | 74 | 76 | 0.0 | 2.0 | 0.00 | 0.00 | 0.00 | 45 | 1014.3 |
| 20260906015708 | 74 | 76 | 0.0 | 2.0 | 0.00 | 0.00 | 0.00 | 45 | 1014.3 |
| 20260906015617 | 74 | 76 | 1.0 | 2.0 | 0.00 | 0.00 | 0.00 | 45 | 1014.3 |
| 20260906015557 | 74 | 76 | 1.0 | 2.0 | 0.00 | 0.00 | 0.00 | 44 | 1014.3 |
| 20260906015535 | 74 | 82 | 0.0 | 2.0 | 0.00 | 0.00 | 0.00 | 44 | 1014.3 |
| 20260906015204 | 74 | 352 | 1.0 | 2.0 | 0.00 | 0.00 | 0.00 | 45 | 1014.3 |
| 20260906015103 | 74 | 352 | 1.0 | 2.0 | 0.00 | 0.00 | 0.00 | 44 | 1014.3 |
| 20260906015000 | 74 | 0 | 1.0 | 2.0 | 0.00 | 0.00 | 0.00 | 44 | 1014.2 |
| 20260906014923 | 74 | 19 | 1.0 | 3.0 | 0.00 | 0.00 | 0.00 | 45 | 1014.2 |
| 20260906014902 | 74 | 348 | 0.0 | 4.0 | 0.00 | 0.00 | 0.00 | 44 | 1014.2 |
| 20260906014841 | 74 | 342 | 0.0 | 4.0 | 0.00 | 0.00 | 0.00 | 44 | 1014.2 |
| 20260906014429 | 74 | 344 | 0.0 | 4.0 | 0.00 | 0.00 | 0.00 | 45 | 1014.2 |
| 20260906014331 | 74 | 339 | 1.0 | 4.0 | 0.00 | 0.00 | 0.00 | 44 | 1014.2 |
| 20260906014230 | 74 | 14 | 1.0 | 4.0 | 0.00 | 0.00 | 0.00 | 45 | 1014.2 |
| 20260906014143 | 74 | 27 | 2.0 | 4.0 | 0.00 | 0.00 | 0.00 | 44 | 1014.2 |
| 20260906014119 | 75 | 15 | 2.0 | 4.0 | 0.00 | 0.00 | 0.00 | 43 | 1014.1 |
| 20260906014059 | 75 | 352 | 1.0 | 4.0 | 0.00 | 0.00 | 0.00 | 43 | 1014.1 |
| 20260906014037 | 75 | 352 | 1.0 | 2.0 | 0.00 | 0.00 | 0.00 | 43 | 1014.1 |
| 20260906014015 | 75 | 5 | 1.0 | 2.0 | 0.00 | 0.00 | 0.00 | 44 | 1014.1 |
| 20260906013936 | 75 | 39 | 1.0 | 2.0 | 0.00 | 0.00 | 0.00 | 43 | 1014.2 |
| 20260906013414 | 75 | 55 | 1.0 | 2.0 | 0.00 | 0.00 | 0.00 | 43 | 1014.1 |
| 20260906013353 | 75 | 50 | 0.0 | 2.0 | 0.00 | 0.00 | 0.00 | 43 | 1014.1 |
| 20260906013008 | 75 | 338 | 1.0 | 2.0 | 0.00 | 0.00 | 0.00 | 42 | 1014.1 |
| 20260906012944 | 75 | 352 | 0.0 | 2.0 | 0.00 | 0.00 | 0.00 | 42 | 1014.1 |
| 20260906012922 | 75 | 82 | 0.0 | 2.0 | 0.00 | 0.00 | 0.00 | 42 | 1014.1 |
| 20260906012901 | 76 | 68 | 0.0 | 2.0 | 0.00 | 0.00 | 0.00 | 42 | 1014.1 |
| 20260906012824 | 76 | 71 | 1.0 | 2.0 | 0.00 | 0.00 | 0.00 | 42 | 1014.1 |
| 20260906012535 | 76 | 74 | 0.0 | 2.0 | 0.00 | 0.00 | 0.00 | 41 | 1014.1 |
| 20260906012202 | 76 | 162 | 0.0 | 2.0 | 0.00 | 0.00 | 0.00 | 42 | 1014.2 |
| 20260906012101 | 76 | 160 | 0.0 | 2.0 | 0.00 | 0.00 | 0.00 | 42 | 1014.2 |
| 20260906012001 | 75 | 248 | 0.0 | 2.0 | 0.00 | 0.00 | 0.00 | 42 | 1014.2 |
| 20260906011901 | 75 | 249 | 1.0 | 2.0 | 0.00 | 0.00 | 0.00 | 42 | 1014.2 |
| 20260906011802 | 75 | 249 | 1.0 | 2.0 | 0.00 | 0.00 | 0.00 | 42 | 1014.2 |
| 20260906011726 | 75 | 248 | 1.0 | 3.0 | 0.00 | 0.00 | 0.00 | 42 | 1014.2 |
| 20260906011649 | 75 | 250 | 1.0 | 3.0 | 0.00 | 0.00 | 0.00 | 42 | 1014.2 |
| 20260906011628 | 75 | 269 | 0.0 | 4.0 | 0.00 | 0.00 | 0.00 | 44 | 1014.2 |
| 20260906011253 | 74 | 352 | 0.0 | 5.0 | 0.00 | 0.00 | 0.00 | 44 | 1014.2 |
| 20260906011152 | 74 | 352 | 0.0 | 5.0 | 0.00 | 0.00 | 0.00 | 44 | 1014.2 |
| 20260906011052 | 74 | 352 | 1.0 | 5.0 | 0.00 | 0.00 | 0.00 | 44 | 1014.1 |
| 20260906010952 | 74 | 352 | 2.0 | 5.0 | 0.00 | 0.00 | 0.00 | 43 | 1014.2 |
| 20260906010830 | 74 | 9 | 2.0 | 5.0 | 0.00 | 0.00 | 0.00 | 43 | 1014.2 |
| 20260906010800 | 74 | 347 | 2.0 | 5.0 | 0.00 | 0.00 | 0.00 | 42 | 1014.2 |
| 20260906010738 | 74 | 14 | 3.0 | 5.0 | 0.00 | 0.00 | 0.00 | 42 | 1014.2 |
| 20260906010701 | 74 | 5 | 3.0 | 5.0 | 0.00 | 0.00 | 0.00 | 43 | 1014.2 |
| 20260906010400 | 74 | 345 | 2.0 | 5.0 | 0.00 | 0.00 | 0.00 | 44 | 1014.1 |
| 20260906010338 | 74 | 15 | 2.0 | 5.0 | 0.00 | 0.00 | 0.00 | 44 | 1014.1 |
| 20260906010316 | 74 | 340 | 3.0 | 5.0 | 0.00 | 0.00 | 0.00 | 43 | 1014.2 |
| 20260906005929 | 75 | 5 | 1.0 | 5.0 | 0.00 | 0.00 | 0.00 | 43 | 1014.2 |
| 20260906005830 | 74 | 321 | 1.0 | 5.0 | 0.00 | 0.00 | 0.00 | 44 | 1014.2 |
| 20260906005729 | 74 | 324 | 1.0 | 5.0 | 0.00 | 0.00 | 0.00 | 44 | 1014.2 |
| 20260906005642 | 74 | 49 | 2.0 | 5.0 | 0.00 | 0.00 | 0.00 | 44 | 1014.2 |
| 20260906005530 | 75 | 352 | 3.0 | 5.0 | 0.00 | 0.00 | 0.00 | 44 | 1014.3 |
| 20260906005431 | 75 | 17 | 2.0 | 5.0 | 0.00 | 0.00 | 0.00 | 44 | 1014.3 |
| 20260906005359 | 75 | 15 | 2.0 | 4.0 | 0.00 | 0.00 | 0.00 | 44 | 1014.2 |
| 20260906005335 | 75 | 61 | 1.0 | 4.0 | 0.00 | 0.00 | 0.00 | 45 | 1014.3 |
| 20260906005313 | 75 | 105 | 1.0 | 3.0 | 0.00 | 0.00 | 0.00 | 44 | 1014.2 |
| 20260906004928 | 75 | 77 | 1.0 | 3.0 | 0.00 | 0.00 | 0.00 | 43 | 1014.2 |
| 20260906004900 | 75 | 110 | 1.0 | 3.0 | 0.00 | 0.00 | 0.00 | 43 | 1014.2 |
| 20260906004836 | 75 | 115 | 1.0 | 3.0 | 0.00 | 0.00 | 0.00 | 44 | 1014.3 |
| 20260906004817 | 75 | 44 | 1.0 | 3.0 | 0.00 | 0.00 | 0.00 | 45 | 1014.3 |
| 20260906004432 | 74 | 50 | 1.0 | 4.0 | 0.00 | 0.00 | 0.00 | 44 | 1014.3 |
| 20260906004330 | 74 | 81 | 1.0 | 4.0 | 0.00 | 0.00 | 0.00 | 44 | 1014.3 |
| 20260906004245 | 74 | 99 | 2.0 | 4.0 | 0.00 | 0.00 | 0.00 | 43 | 1014.3 |
| 20260906004225 | 74 | 90 | 2.0 | 5.0 | 0.00 | 0.00 | 0.00 | 43 | 1014.3 |
| 20260906004148 | 74 | 111 | 2.0 | 5.0 | 0.00 | 0.00 | 0.00 | 43 | 1014.3 |
| 20260906004126 | 74 | 83 | 1.0 | 5.0 | 0.00 | 0.00 | 0.00 | 43 | 1014.3 |
| 20260906004105 | 74 | 86 | 1.0 | 5.0 | 0.00 | 0.00 | 0.00 | 44 | 1014.3 |
| 20260906004042 | 74 | 66 | 2.0 | 5.0 | 0.00 | 0.00 | 0.00 | 43 | 1014.3 |
| 20260906003448 | 74 | 109 | 1.0 | 5.0 | 0.00 | 0.00 | 0.00 | 43 | 1014.2 |
| 20260906003425 | 75 | 164 | 2.0 | 5.0 | 0.00 | 0.00 | 0.00 | 42 | 1014.3 |
| 20260906003402 | 75 | 154 | 3.0 | 5.0 | 0.00 | 0.00 | 0.00 | 43 | 1014.3 |
| 20260906003030 | 75 | 61 | 2.0 | 7.0 | 0.00 | 0.00 | 0.00 | 43 | 1014.3 |
| 20260906002931 | 75 | 154 | 1.0 | 7.0 | 0.00 | 0.00 | 0.00 | 43 | 1014.3 |
| 20260906002849 | 74 | 154 | 0.0 | 7.0 | 0.00 | 0.00 | 0.00 | 44 | 1014.3 |
| 20260906002828 | 74 | 96 | 1.0 | 7.0 | 0.00 | 0.00 | 0.00 | 44 | 1014.3 |
| 20260906002808 | 74 | 5 | 2.0 | 7.0 | 0.00 | 0.00 | 0.00 | 44 | 1014.3 |
| 20260906002732 | 74 | 12 | 2.0 | 7.0 | 0.00 | 0.00 | 0.00 | 43 | 1014.3 |
| 20260906002440 | 74 | 85 | 2.0 | 7.0 | 0.00 | 0.00 | 0.00 | 43 | 1014.4 |
| 20260906002419 | 74 | 169 | 3.0 | 7.0 | 0.00 | 0.00 | 0.00 | 43 | 1014.4 |
| 20260906002357 | 75 | 81 | 3.0 | 7.0 | 0.00 | 0.00 | 0.00 | 43 | 1014.3 |
| 20260906002048 | 75 | 351 | 2.0 | 4.0 | 0.00 | 0.00 | 0.00 | 43 | 1014.4 |
| 20260906002028 | 75 | 64 | 2.0 | 4.0 | 0.00 | 0.00 | 0.00 | 43 | 1014.4 |
| 20260906002006 | 75 | 119 | 3.0 | 4.0 | 0.00 | 0.00 | 0.00 | 43 | 1014.4 |
| 20260906001945 | 75 | 84 | 2.0 | 4.0 | 0.00 | 0.00 | 0.00 | 43 | 1014.3 |
| 20260906001639 | 75 | 74 | 2.0 | 4.0 | 0.00 | 0.00 | 0.00 | 43 | 1014.4 |
| 20260906001617 | 75 | 47 | 1.0 | 5.0 | 0.00 | 0.00 | 0.00 | 43 | 1014.4 |
| 20260906001552 | 75 | 209 | 1.0 | 5.0 | 0.00 | 0.00 | 0.00 | 43 | 1014.4 |
| 20260906001245 | 74 | 139 | 1.0 | 5.0 | 0.00 | 0.00 | 0.00 | 44 | 1014.4 |
| 20260906000955 | 74 | 180 | 2.0 | 5.0 | 0.00 | 0.00 | 0.00 | 43 | 1014.4 |
| 20260906000658 | 74 | 126 | 2.0 | 5.0 | 0.00 | 0.00 | 0.00 | 43 | 1014.4 |
| 20260906000620 | 74 | 149 | 2.0 | 5.0 | 0.00 | 0.00 | 0.00 | 43 | 1014.4 |
| 20260906000558 | 74 | 121 | 2.0 | 5.0 | 0.00 | 0.00 | 0.00 | 43 | 1014.4 |
| 20260906000248 | 74 | 200 | 2.0 | 4.0 | 0.00 | 0.00 | 0.00 | 43 | 1014.4 |
| 20260906000226 | 74 | 173 | 2.0 | 4.0 | 0.00 | 0.00 | 0.00 | 43 | 1014.4 |
| 20260906000147 | 74 | 165 | 2.0 | 4.0 | 0.00 | 0.00 | 0.00 | 43 | 1014.5 |
| 20260905235846 | 74 | 162 | 2.0 | 4.0 | 0.00 | 0.00 | 0.00 | 43 | 1014.4 |
| 20260905235823 | 74 | 123 | 2.0 | 4.0 | 0.00 | 0.00 | 0.00 | 44 | 1014.4 |
| 20260905235803 | 74 | 84 | 2.0 | 4.0 | 0.00 | 0.00 | 0.00 | 44 | 1014.4 |
| 20260905235726 | 74 | 73 | 1.0 | 5.0 | 0.00 | 0.00 | 0.00 | 44 | 1014.4 |
| 20260905235431 | 74 | 44 | 2.0 | 5.0 | 0.00 | 0.00 | 0.00 | 44 | 1014.5 |
| 20260905235410 | 74 | 109 | 2.0 | 5.0 | 0.00 | 0.00 | 0.00 | 45 | 1014.4 |
| 20260905235102 | 74 | 88 | 3.0 | 5.0 | 0.00 | 0.00 | 0.00 | 44 | 1014.5 |
| 20260905235041 | 74 | 82 | 2.0 | 6.0 | 0.00 | 0.00 | 0.00 | 44 | 1014.5 |
| 20260905234708 | 74 | 163 | 3.0 | 6.0 | 0.00 | 0.00 | 0.00 | 44 | 1014.4 |
| 20260905234611 | 74 | 148 | 2.0 | 6.0 | 0.00 | 0.00 | 0.00 | 44 | 1014.5 |
| 20260905234506 | 74 | 63 | 2.0 | 6.0 | 0.00 | 0.00 | 0.00 | 44 | 1014.5 |
| 20260905234405 | 74 | 54 | 2.0 | 6.0 | 0.00 | 0.00 | 0.00 | 45 | 1014.4 |
| 20260905234306 | 74 | 66 | 2.0 | 6.0 | 0.00 | 0.00 | 0.00 | 45 | 1014.5 |
| 20260905234205 | 74 | 22 | 2.0 | 6.0 | 0.00 | 0.00 | 0.00 | 44 | 1014.4 |
| 20260905234109 | 74 | 317 | 4.0 | 6.0 | 0.00 | 0.00 | 0.00 | 44 | 1014.5 |
| 20260905234006 | 74 | 347 | 4.0 | 6.0 | 0.00 | 0.00 | 0.00 | 44 | 1014.5 |
| 20260905233902 | 74 | 9 | 4.0 | 6.0 | 0.00 | 0.00 | 0.00 | 44 | 1014.4 |
| 20260905233801 | 74 | 317 | 4.0 | 6.0 | 0.00 | 0.00 | 0.00 | 44 | 1014.5 |
| 20260905233701 | 75 | 350 | 3.0 | 6.0 | 0.00 | 0.00 | 0.00 | 43 | 1014.5 |
| 20260905233607 | 75 | 340 | 3.0 | 6.0 | 0.00 | 0.00 | 0.00 | 43 | 1014.4 |
| 20260905233505 | 75 | 352 | 2.0 | 6.0 | 0.00 | 0.00 | 0.00 | 44 | 1014.5 |
| 20260905233402 | 75 | 352 | 2.0 | 6.0 | 0.00 | 0.00 | 0.00 | 46 | 1014.5 |
| 20260905233302 | 75 | 55 | 2.0 | 6.0 | 0.00 | 0.00 | 0.00 | 45 | 1014.5 |
| 20260905233201 | 75 | 352 | 2.0 | 6.0 | 0.00 | 0.00 | 0.00 | 46 | 1014.5 |
| 20260905233103 | 75 | 67 | 3.0 | 6.0 | 0.00 | 0.00 | 0.00 | 45 | 1014.5 |
| 20260905233001 | 75 | 30 | 3.0 | 6.0 | 0.00 | 0.00 | 0.00 | 44 | 1014.4 |
| 20260905232916 | 75 | 26 | 2.0 | 6.0 | 0.00 | 0.00 | 0.00 | 45 | 1014.4 |
| 20260905232854 | 75 | 11 | 1.0 | 6.0 | 0.00 | 0.00 | 0.00 | 44 | 1014.4 |
| 20260905232833 | 75 | 334 | 1.0 | 5.0 | 0.00 | 0.00 | 0.00 | 44 | 1014.4 |
| 20260905232454 | 75 | 0 | 2.0 | 5.0 | 0.00 | 0.00 | 0.00 | 44 | 1014.4 |
| 20260905232355 | 75 | 69 | 3.0 | 5.0 | 0.00 | 0.00 | 0.00 | 44 | 1014.5 |
| 20260905232257 | 75 | 346 | 2.0 | 5.0 | 0.00 | 0.00 | 0.00 | 44 | 1014.4 |
| 20260905232235 | 75 | 32 | 1.0 | 5.0 | 0.00 | 0.00 | 0.00 | 45 | 1014.4 |
| 20260905232212 | 75 | 63 | 2.0 | 5.0 | 0.00 | 0.00 | 0.00 | 44 | 1014.4 |
| 20260905232137 | 75 | 30 | 2.0 | 5.0 | 0.00 | 0.00 | 0.00 | 44 | 1014.4 |
| 20260905232116 | 75 | 124 | 2.0 | 5.0 | 0.00 | 0.00 | 0.00 | 45 | 1014.4 |
| 20260905232052 | 75 | 82 | 2.0 | 5.0 | 0.00 | 0.00 | 0.00 | 46 | 1014.4 |
| 20260905231449 | 75 | 88 | 1.0 | 5.0 | 0.00 | 0.00 | 0.00 | 45 | 1014.4 |
| 20260905231348 | 75 | 40 | 1.0 | 5.0 | 0.00 | 0.00 | 0.00 | 45 | 1014.4 |
| 20260905231249 | 74 | 26 | 1.0 | 7.0 | 0.00 | 0.00 | 0.00 | 44 | 1014.4 |
| 20260905231202 | 74 | 34 | 2.0 | 7.0 | 0.00 | 0.00 | 0.00 | 44 | 1014.5 |
| 20260905231141 | 74 | 352 | 2.0 | 7.0 | 0.00 | 0.00 | 0.00 | 44 | 1014.5 |
| 20260905231105 | 74 | 205 | 2.0 | 7.0 | 0.00 | 0.00 | 0.00 | 45 | 1014.5 |
| 20260905230734 | 74 | 352 | 3.0 | 7.0 | 0.00 | 0.00 | 0.00 | 44 | 1014.5 |
| 20260905230634 | 74 | 330 | 4.0 | 7.0 | 0.00 | 0.00 | 0.00 | 44 | 1014.5 |
| 20260905230546 | 75 | 5 | 4.0 | 7.0 | 0.00 | 0.00 | 0.00 | 44 | 1014.5 |
| 20260905230433 | 75 | 0 | 3.0 | 7.0 | 0.00 | 0.00 | 0.00 | 44 | 1014.5 |
| 20260905230330 | 75 | 5 | 2.0 | 7.0 | 0.00 | 0.00 | 0.00 | 44 | 1014.5 |
| 20260905230258 | 75 | 338 | 2.0 | 4.0 | 0.00 | 0.00 | 0.00 | 45 | 1014.5 |
| 20260905230236 | 75 | 352 | 2.0 | 4.0 | 0.00 | 0.00 | 0.00 | 44 | 1014.4 |
| 20260905230201 | 75 | 343 | 2.0 | 4.0 | 0.00 | 0.00 | 0.00 | 44 | 1014.4 |
| 20260905225832 | 75 | 173 | 2.0 | 7.0 | 0.00 | 0.00 | 0.00 | 44 | 1014.4 |
| 20260905225729 | 74 | 238 | 2.0 | 7.0 | 0.00 | 0.00 | 0.00 | 44 | 1014.5 |
| 20260905225629 | 74 | 190 | 1.0 | 7.0 | 0.00 | 0.00 | 0.00 | 44 | 1014.4 |
| 20260905225539 | 74 | 194 | 1.0 | 7.0 | 0.00 | 0.00 | 0.00 | 44 | 1014.4 |
| 20260905225517 | 74 | 105 | 1.0 | 7.0 | 0.00 | 0.00 | 0.00 | 44 | 1014.4 |
| 20260905225455 | 74 | 344 | 2.0 | 7.0 | 0.00 | 0.00 | 0.00 | 44 | 1014.5 |
| 20260905225120 | 74 | 229 | 4.0 | 7.0 | 0.00 | 0.00 | 0.00 | 44 | 1014.5 |
| 20260905225034 | 74 | 254 | 4.0 | 7.0 | 0.00 | 0.00 | 0.00 | 44 | 1014.6 |
| 20260905225010 | 74 | 252 | 2.0 | 7.0 | 0.00 | 0.00 | 0.00 | 44 | 1014.6 |
| 20260905224949 | 74 | 247 | 2.0 | 7.0 | 0.00 | 0.00 | 0.00 | 44 | 1014.6 |
| 20260905224647 | 74 | 324 | 3.0 | 7.0 | 0.00 | 0.00 | 0.00 | 45 | 1014.6 |
| 20260905224608 | 74 | 343 | 3.0 | 7.0 | 0.00 | 0.00 | 0.00 | 45 | 1014.7 |
| 20260905224547 | 74 | 284 | 1.0 | 4.0 | 0.00 | 0.00 | 0.00 | 45 | 1014.6 |
| 20260905224217 | 74 | 28 | 2.0 | 6.0 | 0.00 | 0.00 | 0.00 | 44 | 1014.6 |
| 20260905224109 | 74 | 105 | 3.0 | 6.0 | 0.00 | 0.00 | 0.00 | 44 | 1014.7 |
| 20260905224011 | 74 | 82 | 3.0 | 6.0 | 0.00 | 0.00 | 0.00 | 45 | 1014.7 |
| 20260905223922 | 74 | 81 | 2.0 | 6.0 | 0.00 | 0.00 | 0.00 | 45 | 1014.6 |
| 20260905223859 | 74 | 94 | 2.0 | 6.0 | 0.00 | 0.00 | 0.00 | 45 | 1014.7 |
| 20260905223837 | 74 | 46 | 3.0 | 6.0 | 0.00 | 0.00 | 0.00 | 45 | 1014.7 |
| 20260905223506 | 74 | 19 | 2.0 | 6.0 | 0.00 | 0.00 | 0.00 | 45 | 1014.7 |
| 20260905223406 | 74 | 103 | 3.0 | 6.0 | 0.00 | 0.00 | 0.00 | 45 | 1014.6 |
| 20260905223305 | 75 | 336 | 3.0 | 6.0 | 0.00 | 0.00 | 0.00 | 45 | 1014.7 |
| 20260905223206 | 75 | 24 | 2.0 | 6.0 | 0.00 | 0.00 | 0.00 | 45 | 1014.7 |
| 20260905223105 | 74 | 56 | 2.0 | 6.0 | 0.00 | 0.00 | 0.00 | 47 | 1014.7 |
| 20260905223005 | 74 | 46 | 2.0 | 6.0 | 0.00 | 0.00 | 0.00 | 47 | 1014.7 |
| 20260905222904 | 74 | 170 | 3.0 | 6.0 | 0.00 | 0.00 | 0.00 | 46 | 1014.7 |
| 20260905222803 | 74 | 85 | 2.0 | 6.0 | 0.00 | 0.00 | 0.00 | 46 | 1014.7 |
| 20260905222703 | 74 | 102 | 2.0 | 6.0 | 0.00 | 0.00 | 0.00 | 45 | 1014.7 |
| 20260905222602 | 74 | 13 | 4.0 | 6.0 | 0.00 | 0.00 | 0.00 | 45 | 1014.7 |
| 20260905222504 | 74 | 5 | 3.0 | 6.0 | 0.00 | 0.00 | 0.00 | 45 | 1014.7 |
| 20260905222403 | 74 | 332 | 2.0 | 6.0 | 0.00 | 0.00 | 0.00 | 46 | 1014.8 |
| 20260905222300 | 75 | 309 | 2.0 | 5.0 | 0.00 | 0.00 | 0.00 | 46 | 1014.7 |
| 20260905222200 | 74 | 291 | 2.0 | 5.0 | 0.00 | 0.00 | 0.00 | 45 | 1014.8 |
| 20260905222059 | 74 | 273 | 2.0 | 5.0 | 0.00 | 0.00 | 0.00 | 45 | 1014.8 |
| 20260905221959 | 74 | 293 | 3.0 | 5.0 | 0.00 | 0.00 | 0.00 | 46 | 1014.7 |
| 20260905221858 | 74 | 287 | 3.0 | 5.0 | 0.00 | 0.00 | 0.00 | 45 | 1014.8 |
| 20260905221824 | 74 | 13 | 2.0 | 5.0 | 0.00 | 0.00 | 0.00 | 46 | 1014.8 |
| 20260905221800 | 74 | 324 | 1.0 | 8.0 | 0.00 | 0.00 | 0.00 | 47 | 1014.7 |
| 20260905221739 | 74 | 280 | 1.0 | 8.0 | 0.00 | 0.00 | 0.00 | 47 | 1014.8 |
| 20260905221353 | 74 | 0 | 2.0 | 8.0 | 0.00 | 0.00 | 0.00 | 45 | 1014.8 |
| 20260905221255 | 74 | 338 | 1.0 | 8.0 | 0.00 | 0.00 | 0.00 | 47 | 1014.8 |
| 20260905221155 | 74 | 282 | 2.0 | 8.0 | 0.00 | 0.00 | 0.00 | 46 | 1014.7 |
| 20260905221131 | 74 | 165 | 3.0 | 8.0 | 0.00 | 0.00 | 0.00 | 47 | 1014.8 |
| 20260905221052 | 74 | 81 | 3.0 | 8.0 | 0.00 | 0.00 | 0.00 | 46 | 1014.8 |
| 20260905221033 | 74 | 102 | 3.0 | 8.0 | 0.00 | 0.00 | 0.00 | 46 | 1014.8 |
| 20260905220649 | 74 | 5 | 4.0 | 8.0 | 0.00 | 0.00 | 0.00 | 45 | 1014.8 |
| 20260905220610 | 74 | 5 | 4.0 | 8.0 | 0.00 | 0.00 | 0.00 | 46 | 1014.8 |
| 20260905220532 | 74 | 62 | 4.0 | 8.0 | 0.00 | 0.00 | 0.00 | 47 | 1014.8 |
| 20260905220508 | 74 | 344 | 2.0 | 8.0 | 0.00 | 0.00 | 0.00 | 46 | 1014.7 |
| 20260905220443 | 74 | 0 | 0.0 | 5.0 | 0.00 | 0.00 | 0.00 | 46 | 1014.8 |
| 20260905220421 | 74 | 340 | 1.0 | 7.0 | 0.00 | 0.00 | 0.00 | 46 | 1014.8 |
| 20260905220404 | 74 | 36 | 2.0 | 7.0 | 0.00 | 0.00 | 0.00 | 46 | 1014.7 |
| 20260905220327 | 74 | 32 | 2.0 | 7.0 | 0.00 | 0.00 | 0.00 | 46 | 1014.8 |
| 20260905215805 | 74 | 53 | 2.0 | 7.0 | 0.00 | 0.00 | 0.00 | 47 | 1014.8 |
| 20260905215743 | 73 | 273 | 2.0 | 7.0 | 0.00 | 0.00 | 0.00 | 47 | 1014.9 |
| 20260905215707 | 73 | 292 | 3.0 | 7.0 | 0.00 | 0.00 | 0.00 | 48 | 1014.9 |
| 20260905215644 | 73 | 266 | 4.0 | 7.0 | 0.00 | 0.00 | 0.00 | 48 | 1014.9 |
| 20260905215621 | 73 | 279 | 3.0 | 7.0 | 0.00 | 0.00 | 0.00 | 48 | 1014.9 |
| 20260905215329 | 73 | 280 | 3.0 | 7.0 | 0.00 | 0.00 | 0.00 | 49 | 1015.0 |
| 20260905215252 | 73 | 248 | 4.0 | 7.0 | 0.00 | 0.00 | 0.00 | 50 | 1015.0 |
| 20260905215231 | 73 | 267 | 3.0 | 7.0 | 0.00 | 0.00 | 0.00 | 48 | 1015.0 |
| 20260905214710 | 73 | 350 | 2.0 | 9.0 | 0.00 | 0.00 | 0.00 | 48 | 1015.2 |
| 20260905214329 | 73 | 352 | 2.0 | 9.0 | 0.00 | 0.00 | 0.00 | 49 | 1015.1 |
| 20260905214228 | 73 | 296 | 2.0 | 9.0 | 0.00 | 0.00 | 0.00 | 49 | 1015.2 |
| 20260905214129 | 73 | 17 | 3.0 | 9.0 | 0.00 | 0.00 | 0.00 | 49 | 1015.2 |
| 20260905214029 | 73 | 5 | 4.0 | 9.0 | 0.00 | 0.00 | 0.00 | 50 | 1015.2 |
| 20260905213929 | 73 | 0 | 5.0 | 9.0 | 0.00 | 0.00 | 0.00 | 48 | 1015.3 |
| 20260905213828 | 73 | 41 | 4.0 | 9.0 | 0.00 | 0.00 | 0.00 | 48 | 1015.3 |
| 20260905213727 | 73 | 16 | 4.0 | 8.0 | 0.00 | 0.00 | 0.00 | 49 | 1015.3 |
| 20260905213627 | 73 | 44 | 4.0 | 8.0 | 0.00 | 0.00 | 0.00 | 49 | 1015.3 |
| 20260905213526 | 73 | 0 | 4.0 | 8.0 | 0.00 | 0.00 | 0.00 | 50 | 1015.3 |
| 20260905213425 | 73 | 350 | 4.0 | 8.0 | 0.00 | 0.00 | 0.00 | 50 | 1015.3 |
| 20260905213324 | 73 | 5 | 3.0 | 8.0 | 0.00 | 0.00 | 0.00 | 50 | 1015.2 |
| 20260905213244 | 72 | 231 | 2.0 | 8.0 | 0.00 | 0.00 | 0.00 | 49 | 1015.2 |
| 20260905213222 | 72 | 275 | 3.0 | 8.0 | 0.00 | 0.00 | 0.00 | 48 | 1015.3 |
| 20260905213158 | 72 | 221 | 4.0 | 8.0 | 0.00 | 0.00 | 0.00 | 49 | 1015.4 |
| 20260905213123 | 72 | 349 | 4.0 | 8.0 | 0.00 | 0.00 | 0.00 | 49 | 1015.3 |
| 20260905213104 | 72 | 325 | 3.0 | 8.0 | 0.00 | 0.00 | 0.00 | 50 | 1015.4 |
| 20260905213043 | 72 | 74 | 3.0 | 7.0 | 0.00 | 0.00 | 0.00 | 49 | 1015.3 |
| 20260905213020 | 73 | 30 | 3.0 | 7.0 | 0.00 | 0.00 | 0.00 | 48 | 1015.3 |
| 20260905212959 | 73 | 267 | 3.0 | 7.0 | 0.00 | 0.00 | 0.00 | 48 | 1015.3 |
| 20260905212656 | 73 | 297 | 2.0 | 6.0 | 0.00 | 0.00 | 0.00 | 49 | 1015.4 |
| 20260905212633 | 73 | 18 | 3.0 | 6.0 | 0.00 | 0.00 | 0.00 | 47 | 1015.4 |
| 20260905212616 | 73 | 11 | 3.0 | 6.0 | 0.00 | 0.00 | 0.00 | 48 | 1015.4 |
| 20260905212313 | 73 | 343 | 3.0 | 6.0 | 0.00 | 0.00 | 0.00 | 50 | 1015.4 |
| 20260905212252 | 72 | 336 | 3.0 | 6.0 | 0.00 | 0.00 | 0.00 | 50 | 1015.4 |
| 20260905212231 | 72 | 22 | 2.0 | 10.0 | 0.00 | 0.00 | 0.00 | 49 | 1015.4 |
| 20260905211659 | 72 | 16 | 2.0 | 10.0 | 0.00 | 0.00 | 0.00 | 48 | 1015.4 |
| 20260905211636 | 72 | 37 | 3.0 | 10.0 | 0.00 | 0.00 | 0.00 | 49 | 1015.4 |
| 20260905211345 | 72 | 71 | 3.0 | 10.0 | 0.00 | 0.00 | 0.00 | 49 | 1015.4 |
| 20260905211041 | 72 | 13 | 3.0 | 10.0 | 0.00 | 0.00 | 0.00 | 49 | 1015.4 |
| 20260905211019 | 72 | 305 | 5.0 | 10.0 | 0.00 | 0.00 | 0.00 | 47 | 1015.4 |
| 20260905210957 | 72 | 5 | 4.0 | 9.0 | 0.00 | 0.00 | 0.00 | 48 | 1015.4 |
| 20260905210937 | 72 | 5 | 3.0 | 7.0 | 0.00 | 0.00 | 0.00 | 49 | 1015.4 |
| 20260905210915 | 72 | 25 | 3.0 | 7.0 | 0.00 | 0.00 | 0.00 | 49 | 1015.4 |
| 20260905210840 | 72 | 5 | 2.0 | 7.0 | 0.00 | 0.00 | 0.00 | 52 | 1015.4 |
| 20260905210545 | 72 | 68 | 1.0 | 7.0 | 0.00 | 0.00 | 0.00 | 49 | 1015.5 |
| 20260905210525 | 72 | 236 | 2.0 | 7.0 | 0.00 | 0.00 | 0.00 | 49 | 1015.5 |
| 20260905210505 | 72 | 314 | 3.0 | 7.0 | 0.00 | 0.00 | 0.00 | 48 | 1015.4 |
| 20260905210430 | 72 | 34 | 2.0 | 6.0 | 0.00 | 0.00 | 0.00 | 50 | 1015.5 |
| 20260905210409 | 72 | 322 | 2.0 | 6.0 | 0.00 | 0.00 | 0.00 | 49 | 1015.5 |
| 20260905210345 | 72 | 5 | 4.0 | 6.0 | 0.00 | 0.00 | 0.00 | 49 | 1015.4 |
| 20260905210055 | 72 | 0 | 2.0 | 6.0 | 0.00 | 0.00 | 0.00 | 47 | 1015.4 |
| 20260905210021 | 72 | 0 | 2.0 | 7.0 | 0.00 | 0.00 | 0.00 | 49 | 1015.4 |
| 20260905205732 | 72 | 95 | 2.0 | 7.0 | 0.00 | 0.00 | 0.00 | 49 | 1015.5 |
| 20260905205158 | 72 | 232 | 2.0 | 7.0 | 0.00 | 0.00 | 0.00 | 49 | 1015.5 |
| 20260905204907 | 72 | 307 | 4.0 | 7.0 | 0.00 | 0.00 | 0.00 | 50 | 1015.5 |
| 20260905204847 | 72 | 0 | 3.0 | 7.0 | 0.00 | 0.00 | 0.00 | 49 | 1015.5 |
| 20260905204827 | 72 | 343 | 2.0 | 7.0 | 0.00 | 0.00 | 0.00 | 49 | 1015.5 |
| 20260905204753 | 72 | 336 | 2.0 | 6.0 | 0.00 | 0.00 | 0.00 | 50 | 1015.5 |
| 20260905204730 | 72 | 288 | 2.0 | 6.0 | 0.00 | 0.00 | 0.00 | 51 | 1015.5 |
| 20260905203901 | 72 | 352 | 3.0 | 6.0 | 0.00 | 0.00 | 0.00 | 49 | 1015.5 |
| 20260905203802 | 72 | 61 | 3.0 | 6.0 | 0.00 | 0.00 | 0.00 | 48 | 1015.5 |
| 20260905203657 | 72 | 78 | 3.0 | 6.0 | 0.00 | 0.00 | 0.00 | 48 | 1015.5 |
| 20260905203558 | 72 | 52 | 3.0 | 6.0 | 0.00 | 0.00 | 0.00 | 50 | 1015.5 |
| 20260905203457 | 72 | 352 | 3.0 | 6.0 | 0.00 | 0.00 | 0.00 | 49 | 1015.5 |
| 20260905203356 | 72 | 0 | 2.0 | 6.0 | 0.00 | 0.00 | 0.00 | 50 | 1015.5 |
| 20260905203308 | 72 | 316 | 3.0 | 6.0 | 0.00 | 0.00 | 0.00 | 50 | 1015.6 |
| 20260905203246 | 72 | 313 | 4.0 | 6.0 | 0.00 | 0.00 | 0.00 | 50 | 1015.5 |
| 20260905203224 | 72 | 352 | 3.0 | 6.0 | 0.00 | 0.00 | 0.00 | 50 | 1015.5 |
| 20260905202855 | 72 | 11 | 3.0 | 7.0 | 0.00 | 0.00 | 0.00 | 50 | 1015.6 |
| 20260905202753 | 72 | 320 | 3.0 | 7.0 | 0.00 | 0.00 | 0.00 | 50 | 1015.6 |
| 20260905202652 | 72 | 293 | 2.0 | 7.0 | 0.00 | 0.00 | 0.00 | 50 | 1015.6 |
| 20260905202553 | 72 | 15 | 2.0 | 7.0 | 0.00 | 0.00 | 0.00 | 50 | 1015.6 |
| 20260905202516 | 72 | 352 | 2.0 | 7.0 | 0.00 | 0.00 | 0.00 | 50 | 1015.5 |
| 20260905202440 | 72 | 24 | 2.0 | 7.0 | 0.00 | 0.00 | 0.00 | 50 | 1015.6 |
| 20260905202417 | 72 | 309 | 2.0 | 7.0 | 0.00 | 0.00 | 0.00 | 49 | 1015.6 |
| 20260905202047 | 72 | 149 | 3.0 | 7.0 | 0.00 | 0.00 | 0.00 | 49 | 1015.7 |
| 20260905202013 | 72 | 292 | 2.0 | 7.0 | 0.00 | 0.00 | 0.00 | 50 | 1015.7 |
| 20260905201936 | 72 | 275 | 1.0 | 7.0 | 0.00 | 0.00 | 0.00 | 50 | 1015.6 |
| 20260905201916 | 72 | 0 | 3.0 | 7.0 | 0.00 | 0.00 | 0.00 | 51 | 1015.6 |
| 20260905201547 | 72 | 29 | 1.0 | 6.0 | 0.00 | 0.00 | 0.00 | 52 | 1015.6 |
| 20260905201445 | 71 | 32 | 2.0 | 6.0 | 0.00 | 0.00 | 0.00 | 52 | 1015.6 |
| 20260905201340 | 71 | 265 | 2.0 | 6.0 | 0.00 | 0.00 | 0.00 | 52 | 1015.6 |
| 20260905201239 | 71 | 11 | 2.0 | 6.0 | 0.00 | 0.00 | 0.00 | 52 | 1015.6 |
| 20260905201138 | 71 | 259 | 1.0 | 8.0 | 0.00 | 0.00 | 0.00 | 51 | 1015.6 |
| 20260905201036 | 71 | 331 | 1.0 | 8.0 | 0.00 | 0.00 | 0.00 | 51 | 1015.6 |
| 20260905200936 | 71 | 19 | 2.0 | 8.0 | 0.00 | 0.00 | 0.00 | 51 | 1015.6 |
| 20260905200836 | 71 | 244 | 2.0 | 8.0 | 0.00 | 0.00 | 0.00 | 50 | 1015.6 |
| 20260905200736 | 71 | 275 | 1.0 | 8.0 | 0.00 | 0.00 | 0.00 | 51 | 1015.6 |
| 20260905200635 | 71 | 281 | 2.0 | 8.0 | 0.00 | 0.00 | 0.00 | 52 | 1015.7 |
| 20260905200530 | 71 | 350 | 3.0 | 8.0 | 0.00 | 0.00 | 0.00 | 51 | 1015.7 |
| 20260905200501 | 71 | 273 | 4.0 | 8.0 | 0.00 | 0.00 | 0.00 | 52 | 1015.7 |
| 20260905200422 | 71 | 282 | 3.0 | 8.0 | 0.00 | 0.00 | 0.00 | 53 | 1015.7 |
| 20260905200359 | 70 | 273 | 3.0 | 8.0 | 0.00 | 0.00 | 0.00 | 53 | 1015.7 |
| 20260905200029 | 70 | 26 | 3.0 | 8.0 | 0.00 | 0.00 | 0.00 | 52 | 1015.8 |
| 20260905195929 | 70 | 352 | 1.0 | 8.0 | 0.00 | 0.00 | 0.00 | 53 | 1015.8 |
| 20260905195829 | 70 | 352 | 2.0 | 6.0 | 0.00 | 0.00 | 0.00 | 52 | 1015.8 |
| 20260905195730 | 70 | 281 | 3.0 | 6.0 | 0.00 | 0.00 | 0.00 | 51 | 1015.8 |
| 20260905195624 | 70 | 238 | 3.0 | 6.0 | 0.00 | 0.00 | 0.00 | 52 | 1015.8 |
| 20260905195524 | 70 | 248 | 2.0 | 5.0 | 0.00 | 0.00 | 0.00 | 54 | 1015.9 |
| 20260905195423 | 70 | 263 | 1.0 | 4.0 | 0.00 | 0.00 | 0.00 | 53 | 1015.9 |
| 20260905195322 | 70 | 312 | 1.0 | 4.0 | 0.00 | 0.00 | 0.00 | 54 | 1015.9 |
| 20260905195238 | 70 | 281 | 2.0 | 4.0 | 0.00 | 0.00 | 0.00 | 54 | 1015.9 |
| 20260905195217 | 70 | 309 | 2.0 | 6.0 | 0.00 | 0.00 | 0.00 | 54 | 1015.9 |
| 20260905195156 | 69 | 294 | 1.0 | 6.0 | 0.00 | 0.00 | 0.00 | 54 | 1015.9 |
| 20260905194849 | 69 | 242 | 1.0 | 6.0 | 0.00 | 0.00 | 0.00 | 53 | 1015.9 |
| 20260905194829 | 69 | 250 | 2.0 | 6.0 | 0.00 | 0.00 | 0.00 | 54 | 1016.0 |
| 20260905194806 | 69 | 350 | 3.0 | 6.0 | 0.00 | 0.00 | 0.00 | 54 | 1016.0 |
| 20260905194745 | 69 | 352 | 3.0 | 6.0 | 0.00 | 0.00 | 0.00 | 55 | 1016.0 |
| 20260905194724 | 69 | 301 | 3.0 | 6.0 | 0.00 | 0.00 | 0.00 | 54 | 1016.0 |
| 20260905194650 | 69 | 265 | 3.0 | 6.0 | 0.00 | 0.00 | 0.00 | 54 | 1016.0 |
| 20260905194627 | 69 | 250 | 3.0 | 6.0 | 0.00 | 0.00 | 0.00 | 53 | 1016.0 |
| 20260905194607 | 69 | 293 | 3.0 | 5.0 | 0.00 | 0.00 | 0.00 | 55 | 1016.0 |
| 20260905194544 | 69 | 336 | 3.0 | 5.0 | 0.00 | 0.00 | 0.00 | 55 | 1016.1 |
| 20260905194523 | 69 | 283 | 2.0 | 5.0 | 0.00 | 0.00 | 0.00 | 55 | 1016.1 |
| 20260905193950 | 69 | 132 | 2.0 | 6.0 | 0.00 | 0.00 | 0.00 | 57 | 1016.2 |
| 20260905193701 | 68 | 341 | 3.0 | 8.0 | 0.00 | 0.00 | 0.00 | 57 | 1016.1 |
| 20260905193628 | 68 | 61 | 2.0 | 8.0 | 0.00 | 0.00 | 0.00 | 56 | 1016.1 |
| 20260905193559 | 68 | 82 | 2.0 | 8.0 | 0.00 | 0.00 | 0.00 | 56 | 1016.1 |
| 20260905193539 | 68 | 57 | 2.0 | 8.0 | 0.00 | 0.00 | 0.00 | 56 | 1016.2 |
| 20260905193519 | 68 | 79 | 2.0 | 8.0 | 0.00 | 0.00 | 0.00 | 56 | 1016.2 |
| 20260905193215 | 68 | 40 | 4.0 | 8.0 | 0.00 | 0.00 | 0.00 | 55 | 1016.2 |
| 20260905192922 | 68 | 5 | 2.0 | 6.0 | 0.00 | 0.00 | 0.00 | 58 | 1016.2 |
| 20260905192901 | 68 | 30 | 3.0 | 6.0 | 0.00 | 0.00 | 0.00 | 55 | 1016.2 |
| 20260905192332 | 68 | 15 | 2.0 | 6.0 | 0.00 | 0.00 | 0.00 | 58 | 1016.1 |
| 20260905192038 | 67 | 259 | 2.0 | 6.0 | 0.00 | 0.00 | 0.00 | 57 | 1016.1 |
| 20260905192016 | 67 | 252 | 2.0 | 6.0 | 0.00 | 0.00 | 0.00 | 56 | 1016.1 |
| 20260905191942 | 67 | 280 | 2.0 | 6.0 | 0.00 | 0.00 | 0.00 | 57 | 1016.1 |
| 20260905191922 | 67 | 352 | 1.0 | 6.0 | 0.00 | 0.00 | 0.00 | 57 | 1016.2 |
| 20260905191858 | 67 | 313 | 1.0 | 6.0 | 0.00 | 0.00 | 0.00 | 57 | 1016.2 |
| 20260905191304 | 67 | 320 | 3.0 | 6.0 | 0.00 | 0.00 | 0.00 | 58 | 1016.2 |
| 20260905191201 | 67 | 325 | 2.0 | 6.0 | 0.00 | 0.00 | 0.00 | 59 | 1016.2 |
| 20260905191102 | 67 | 292 | 2.0 | 5.0 | 0.00 | 0.00 | 0.00 | 59 | 1016.2 |
| 20260905191000 | 67 | 258 | 1.0 | 5.0 | 0.00 | 0.00 | 0.00 | 59 | 1016.2 |
| 20260905190903 | 67 | 0 | 2.0 | 6.0 | 0.00 | 0.00 | 0.00 | 57 | 1016.2 |
| 20260905190801 | 67 | 332 | 2.0 | 6.0 | 0.00 | 0.00 | 0.00 | 58 | 1016.3 |
| 20260905190702 | 67 | 338 | 3.0 | 6.0 | 0.00 | 0.00 | 0.00 | 58 | 1016.2 |
| 20260905190600 | 67 | 23 | 3.0 | 6.0 | 0.00 | 0.00 | 0.00 | 59 | 1016.2 |
| 20260905190502 | 67 | 22 | 3.0 | 6.0 | 0.00 | 0.00 | 0.00 | 59 | 1016.2 |
| 20260905190401 | 67 | 69 | 2.0 | 6.0 | 0.00 | 0.00 | 0.00 | 59 | 1016.2 |
| 20260905190303 | 67 | 9 | 1.0 | 6.0 | 0.00 | 0.00 | 0.00 | 59 | 1016.2 |
| 20260905190202 | 66 | 302 | 3.0 | 6.0 | 0.00 | 0.00 | 0.00 | 58 | 1016.2 |
| 20260905190105 | 66 | 238 | 2.0 | 6.0 | 0.00 | 0.00 | 0.00 | 59 | 1016.2 |
| 20260905190001 | 66 | 263 | 1.0 | 6.0 | 0.00 | 0.00 | 0.00 | 58 | 1016.2 |
| 20260905185901 | 66 | 348 | 1.0 | 7.0 | 0.00 | 0.00 | 0.00 | 58 | 1016.2 |
| 20260905185800 | 66 | 260 | 3.0 | 7.0 | 0.00 | 0.00 | 0.00 | 58 | 1016.2 |
| 20260905185701 | 66 | 288 | 2.0 | 7.0 | 0.00 | 0.00 | 0.00 | 58 | 1016.2 |
| 20260905185600 | 66 | 0 | 1.0 | 7.0 | 0.00 | 0.00 | 0.00 | 59 | 1016.2 |
| 20260905185502 | 66 | 28 | 2.0 | 7.0 | 0.00 | 0.00 | 0.00 | 58 | 1016.2 |
| 20260905185400 | 66 | 249 | 2.0 | 7.0 | 0.00 | 0.00 | 0.00 | 59 | 1016.3 |
| 20260905185306 | 66 | 294 | 2.0 | 7.0 | 0.00 | 0.00 | 0.00 | 59 | 1016.2 |
| 20260905185201 | 66 | 329 | 3.0 | 7.0 | 0.00 | 0.00 | 0.00 | 58 | 1016.2 |
| 20260905185103 | 66 | 322 | 3.0 | 7.0 | 0.00 | 0.00 | 0.00 | 60 | 1016.3 |
| 20260905185001 | 66 | 304 | 2.0 | 7.0 | 0.00 | 0.00 | 0.00 | 60 | 1016.3 |
| 20260905184902 | 66 | 273 | 2.0 | 4.0 | 0.00 | 0.00 | 0.00 | 61 | 1016.3 |
| 20260905184803 | 66 | 352 | 2.0 | 4.0 | 0.00 | 0.00 | 0.00 | 61 | 1016.3 |
| 20260905184704 | 66 | 11 | 1.0 | 4.0 | 0.00 | 0.00 | 0.00 | 60 | 1016.4 |
| 20260905184601 | 66 | 15 | 1.0 | 4.0 | 0.00 | 0.00 | 0.00 | 59 | 1016.4 |
| 20260905184504 | 66 | 55 | 1.0 | 4.0 | 0.00 | 0.00 | 0.00 | 60 | 1016.4 |
| 20260905184426 | 66 | 318 | 3.0 | 4.0 | 0.00 | 0.00 | 0.00 | 59 | 1016.4 |
| 20260905184347 | 65 | 352 | 3.0 | 6.0 | 0.00 | 0.00 | 0.00 | 61 | 1016.4 |
| 20260905184325 | 65 | 350 | 2.0 | 6.0 | 0.00 | 0.00 | 0.00 | 60 | 1016.6 |
| 20260905184019 | 65 | 17 | 2.0 | 6.0 | 0.00 | 0.00 | 0.00 | 60 | 1016.4 |
| 20260905183955 | 65 | 246 | 2.0 | 6.0 | 0.00 | 0.00 | 0.00 | 61 | 1016.4 |
| 20260905183923 | 65 | 53 | 2.0 | 6.0 | 0.00 | 0.00 | 0.00 | 59 | 1016.6 |
| 20260905183551 | 65 | 285 | 3.0 | 6.0 | 0.00 | 0.00 | 0.00 | 60 | 1016.4 |
| 20260905183451 | 65 | 342 | 3.0 | 6.0 | 0.00 | 0.00 | 0.00 | 60 | 1016.6 |
| 20260905183351 | 65 | 302 | 2.0 | 6.0 | 0.00 | 0.00 | 0.00 | 60 | 1016.6 |
| 20260905183301 | 65 | 320 | 1.0 | 5.0 | 0.00 | 0.00 | 0.00 | 60 | 1016.6 |
| 20260905183239 | 65 | 292 | 2.0 | 5.0 | 0.00 | 0.00 | 0.00 | 60 | 1016.6 |
| 20260905183217 | 65 | 317 | 2.0 | 5.0 | 0.00 | 0.00 | 0.00 | 62 | 1016.6 |
| 20260905182847 | 65 | 352 | 3.0 | 5.0 | 0.00 | 0.00 | 0.00 | 59 | 1016.7 |
| 20260905182746 | 65 | 34 | 2.0 | 5.0 | 0.00 | 0.00 | 0.00 | 60 | 1016.7 |
| 20260905182646 | 65 | 327 | 2.0 | 5.0 | 0.00 | 0.00 | 0.00 | 60 | 1016.8 |
| 20260905182546 | 65 | 290 | 1.0 | 5.0 | 0.00 | 0.00 | 0.00 | 61 | 1016.8 |
| 20260905182445 | 65 | 325 | 1.0 | 5.0 | 0.00 | 0.00 | 0.00 | 60 | 1016.8 |
| 20260905182404 | 65 | 343 | 1.0 | 5.0 | 0.00 | 0.00 | 0.00 | 60 | 1016.8 |
| 20260905182326 | 65 | 303 | 2.0 | 5.0 | 0.00 | 0.00 | 0.00 | 60 | 1016.8 |
| 20260905182305 | 65 | 50 | 2.0 | 5.0 | 0.00 | 0.00 | 0.00 | 60 | 1016.8 |
| 20260905181932 | 65 | 61 | 0.0 | 5.0 | 0.00 | 0.00 | 0.00 | 60 | 1016.8 |
| 20260905181830 | 65 | 339 | 1.0 | 5.0 | 0.00 | 0.00 | 0.00 | 60 | 1016.9 |
| 20260905181730 | 65 | 339 | 2.0 | 5.0 | 0.00 | 0.00 | 0.00 | 60 | 1016.9 |
| 20260905181629 | 65 | 5 | 3.0 | 6.0 | 0.00 | 0.00 | 0.00 | 61 | 1016.9 |
| 20260905181528 | 65 | 319 | 2.0 | 6.0 | 0.00 | 0.00 | 0.00 | 61 | 1016.9 |
| 20260905181432 | 65 | 62 | 1.0 | 6.0 | 0.00 | 0.00 | 0.00 | 60 | 1016.9 |
| 20260905181411 | 65 | 36 | 1.0 | 6.0 | 0.00 | 0.00 | 0.00 | 61 | 1016.9 |
| 20260905181335 | 64 | 334 | 1.0 | 6.0 | 0.00 | 0.00 | 0.00 | 61 | 1016.9 |
| 20260905181314 | 64 | 271 | 1.0 | 6.0 | 0.00 | 0.00 | 0.00 | 62 | 1017.0 |
| 20260905181251 | 64 | 40 | 2.0 | 6.0 | 0.00 | 0.00 | 0.00 | 61 | 1017.0 |
| 20260905181232 | 64 | 238 | 3.0 | 6.0 | 0.00 | 0.00 | 0.00 | 61 | 1017.0 |
| 20260905181208 | 64 | 293 | 4.0 | 6.0 | 0.00 | 0.00 | 0.00 | 61 | 1017.0 |
| 20260905181134 | 64 | 5 | 3.0 | 6.0 | 0.00 | 0.00 | 0.00 | 61 | 1017.1 |
| 20260905180842 | 64 | 67 | 2.0 | 4.0 | 0.00 | 0.00 | 0.00 | 61 | 1017.0 |
| 20260905180550 | 64 | 308 | 2.0 | 4.0 | 0.00 | 0.00 | 0.00 | 62 | 1017.0 |
| 20260905180513 | 64 | 20 | 2.0 | 4.0 | 0.00 | 0.00 | 0.00 | 62 | 1017.0 |
| 20260905180222 | 64 | 21 | 3.0 | 4.0 | 0.00 | 0.00 | 0.00 | 62 | 1017.0 |
| 20260905180202 | 64 | 14 | 3.0 | 5.0 | 0.00 | 0.00 | 0.00 | 61 | 1017.0 |
| 20260905180137 | 64 | 352 | 2.0 | 5.0 | 0.00 | 0.00 | 0.00 | 62 | 1017.0 |
| 20260905175836 | 64 | 286 | 2.0 | 8.0 | 0.00 | 0.00 | 0.00 | 61 | 1017.1 |
| 20260905175543 | 64 | 290 | 1.0 | 8.0 | 0.00 | 0.00 | 0.00 | 63 | 1017.1 |
| 20260905175212 | 64 | 284 | 2.0 | 8.0 | 0.00 | 0.00 | 0.00 | 63 | 1017.1 |
| 20260905175109 | 64 | 323 | 3.0 | 8.0 | 0.00 | 0.00 | 0.00 | 63 | 1017.1 |
| 20260905175008 | 64 | 257 | 2.0 | 8.0 | 0.00 | 0.00 | 0.00 | 62 | 1017.1 |
| 20260905174944 | 64 | 345 | 3.0 | 8.0 | 0.00 | 0.00 | 0.00 | 63 | 1017.1 |
| 20260905174921 | 64 | 267 | 4.0 | 8.0 | 0.00 | 0.00 | 0.00 | 62 | 1017.1 |
| 20260905174849 | 64 | 200 | 4.0 | 8.0 | 0.00 | 0.00 | 0.00 | 62 | 1017.1 |
| 20260905174827 | 64 | 141 | 3.0 | 5.0 | 0.00 | 0.00 | 0.00 | 62 | 1017.1 |
| 20260905174806 | 64 | 155 | 3.0 | 5.0 | 0.00 | 0.00 | 0.00 | 61 | 1017.1 |
| 20260905174743 | 64 | 75 | 2.0 | 5.0 | 0.00 | 0.00 | 0.00 | 63 | 1017.1 |
| 20260905174723 | 64 | 61 | 2.0 | 5.0 | 0.00 | 0.00 | 0.00 | 62 | 1017.1 |
| 20260905174416 | 64 | 345 | 0.0 | 6.0 | 0.00 | 0.00 | 0.00 | 63 | 1017.1 |
| 20260905174128 | 64 | 275 | 0.0 | 6.0 | 0.00 | 0.00 | 0.00 | 62 | 1017.1 |
| 20260905174109 | 64 | 275 | 0.0 | 6.0 | 0.00 | 0.00 | 0.00 | 62 | 1017.1 |
| 20260905174034 | 64 | 275 | 1.0 | 6.0 | 0.00 | 0.00 | 0.00 | 62 | 1017.1 |
| 20260905173744 | 64 | 296 | 2.0 | 6.0 | 0.00 | 0.00 | 0.00 | 64 | 1017.2 |
| 20260905173721 | 63 | 292 | 2.0 | 6.0 | 0.00 | 0.00 | 0.00 | 65 | 1017.2 |
| 20260905173419 | 63 | 279 | 1.0 | 5.0 | 0.00 | 0.00 | 0.00 | 65 | 1017.2 |
| 20260905173132 | 63 | 14 | 2.0 | 5.0 | 0.00 | 0.00 | 0.00 | 63 | 1017.2 |
| 20260905172804 | 63 | 5 | 2.0 | 5.0 | 0.00 | 0.00 | 0.00 | 64 | 1017.2 |
| 20260905172701 | 63 | 17 | 2.0 | 5.0 | 0.00 | 0.00 | 0.00 | 63 | 1017.2 |
| 20260905172601 | 63 | 5 | 2.0 | 6.0 | 0.00 | 0.00 | 0.00 | 63 | 1017.2 |
| 20260905172502 | 63 | 0 | 2.0 | 6.0 | 0.00 | 0.00 | 0.00 | 63 | 1017.1 |
| 20260905172401 | 63 | 49 | 1.0 | 6.0 | 0.00 | 0.00 | 0.00 | 64 | 1017.1 |
| 20260905172331 | 63 | 329 | 0.0 | 6.0 | 0.00 | 0.00 | 0.00 | 64 | 1017.1 |
| 20260905172250 | 63 | 274 | 0.0 | 6.0 | 0.00 | 0.00 | 0.00 | 64 | 1017.1 |
| 20260905172231 | 63 | 297 | 1.0 | 6.0 | 0.00 | 0.00 | 0.00 | 64 | 1017.1 |
| 20260905171904 | 63 | 333 | 2.0 | 6.0 | 0.00 | 0.00 | 0.00 | 65 | 1017.1 |
| 20260905171828 | 62 | 344 | 3.0 | 6.0 | 0.00 | 0.00 | 0.00 | 65 | 1017.1 |
| 20260905171752 | 62 | 341 | 2.0 | 6.0 | 0.00 | 0.00 | 0.00 | 64 | 1017.1 |
| 20260905171731 | 63 | 352 | 2.0 | 5.0 | 0.00 | 0.00 | 0.00 | 65 | 1017.1 |
| 20260905171400 | 62 | 316 | 2.0 | 5.0 | 0.00 | 0.00 | 0.00 | 65 | 1017.1 |
| 20260905171303 | 62 | 16 | 1.0 | 5.0 | 0.00 | 0.00 | 0.00 | 65 | 1017.1 |
| 20260905171203 | 62 | 350 | 1.0 | 4.0 | 0.00 | 0.00 | 0.00 | 66 | 1017.1 |
| 20260905171102 | 62 | 13 | 1.0 | 4.0 | 0.00 | 0.00 | 0.00 | 65 | 1017.1 |
| 20260905171001 | 62 | 298 | 1.0 | 4.0 | 0.00 | 0.00 | 0.00 | 66 | 1017.1 |
| 20260905170928 | 62 | 248 | 1.0 | 4.0 | 0.00 | 0.00 | 0.00 | 65 | 1017.1 |
| 20260905170905 | 62 | 232 | 1.0 | 4.0 | 0.00 | 0.00 | 0.00 | 64 | 1017.1 |
| 20260905170832 | 62 | 273 | 0.0 | 4.0 | 0.00 | 0.00 | 0.00 | 66 | 1017.1 |
| 20260905170544 | 62 | 319 | 2.0 | 4.0 | 0.00 | 0.00 | 0.00 | 65 | 1017.1 |
| 20260905170522 | 62 | 306 | 2.0 | 4.0 | 0.00 | 0.00 | 0.00 | 66 | 1017.1 |
| 20260905170459 | 62 | 337 | 2.0 | 4.0 | 0.00 | 0.00 | 0.00 | 66 | 1017.1 |
| 20260905170422 | 62 | 309 | 1.0 | 4.0 | 0.00 | 0.00 | 0.00 | 66 | 1017.0 |
| 20260905170131 | 62 | 36 | 2.0 | 4.0 | 0.00 | 0.00 | 0.00 | 66 | 1017.1 |
| 20260905165828 | 62 | 15 | 2.0 | 4.0 | 0.00 | 0.00 | 0.00 | 67 | 1017.1 |
| 20260905165755 | 62 | 38 | 1.0 | 4.0 | 0.00 | 0.00 | 0.00 | 66 | 1017.0 |
| 20260905165732 | 62 | 5 | 1.0 | 4.0 | 0.00 | 0.00 | 0.00 | 67 | 1017.1 |
| 20260905165403 | 62 | 274 | 1.0 | 4.0 | 0.00 | 0.00 | 0.00 | 67 | 1017.0 |
| 20260905165306 | 62 | 326 | 1.0 | 4.0 | 0.00 | 0.00 | 0.00 | 66 | 1017.0 |
| 20260905165201 | 62 | 273 | 1.0 | 4.0 | 0.00 | 0.00 | 0.00 | 67 | 1016.9 |
| 20260905165102 | 62 | 344 | 2.0 | 4.0 | 0.00 | 0.00 | 0.00 | 66 | 1017.0 |
| 20260905165000 | 62 | 331 | 2.0 | 4.0 | 0.00 | 0.00 | 0.00 | 66 | 1016.9 |
| 20260905164926 | 62 | 273 | 1.0 | 4.0 | 0.00 | 0.00 | 0.00 | 67 | 1016.9 |
| 20260905164903 | 62 | 336 | 1.0 | 4.0 | 0.00 | 0.00 | 0.00 | 66 | 1016.9 |
| 20260905164831 | 61 | 344 | 1.0 | 4.0 | 0.00 | 0.00 | 0.00 | 66 | 1017.0 |
| 20260905164503 | 61 | 301 | 1.0 | 4.0 | 0.00 | 0.00 | 0.00 | 66 | 1016.9 |
| 20260905164401 | 61 | 329 | 1.0 | 4.0 | 0.00 | 0.00 | 0.00 | 67 | 1016.9 |
| 20260905164201 | 61 | 336 | 2.0 | 5.0 | 0.00 | 0.00 | 0.00 | 67 | 1016.9 |
| 20260905164102 | 61 | 312 | 1.0 | 5.0 | 0.00 | 0.00 | 0.00 | 66 | 1016.9 |
| 20260905164000 | 61 | 272 | 2.0 | 5.0 | 0.00 | 0.00 | 0.00 | 67 | 1016.9 |
| 20260905163902 | 61 | 297 | 2.0 | 5.0 | 0.00 | 0.00 | 0.00 | 66 | 1016.9 |
| 20260905163802 | 61 | 264 | 2.0 | 5.0 | 0.00 | 0.00 | 0.00 | 66 | 1016.9 |
| 20260905163715 | 61 | 319 | 2.0 | 5.0 | 0.00 | 0.00 | 0.00 | 66 | 1016.9 |
| 20260905163652 | 61 | 261 | 1.0 | 5.0 | 0.00 | 0.00 | 0.00 | 66 | 1016.9 |
| 20260905163632 | 61 | 290 | 1.0 | 5.0 | 0.00 | 0.00 | 0.00 | 68 | 1016.9 |
| 20260905163303 | 61 | 331 | 2.0 | 5.0 | 0.00 | 0.00 | 0.00 | 67 | 1016.9 |
| 20260905163202 | 61 | 342 | 2.0 | 5.0 | 0.00 | 0.00 | 0.00 | 66 | 1016.9 |
| 20260905163103 | 61 | 218 | 2.0 | 5.0 | 0.00 | 0.00 | 0.00 | 66 | 1017.0 |
| 20260905163004 | 61 | 275 | 3.0 | 5.0 | 0.00 | 0.00 | 0.00 | 66 | 1016.9 |
| 20260905162903 | 61 | 290 | 3.0 | 5.0 | 0.00 | 0.00 | 0.00 | 66 | 1016.9 |
| 20260905162802 | 61 | 302 | 2.0 | 5.0 | 0.00 | 0.00 | 0.00 | 66 | 1016.9 |
| 20260905162702 | 61 | 315 | 1.0 | 5.0 | 0.00 | 0.00 | 0.00 | 67 | 1016.9 |
| 20260905162617 | 61 | 299 | 2.0 | 5.0 | 0.00 | 0.00 | 0.00 | 66 | 1016.9 |
| 20260905162555 | 61 | 281 | 2.0 | 5.0 | 0.00 | 0.00 | 0.00 | 66 | 1016.9 |
| 20260905162533 | 61 | 326 | 2.0 | 5.0 | 0.00 | 0.00 | 0.00 | 66 | 1016.9 |
| 20260905162213 | 61 | 291 | 3.0 | 5.0 | 0.00 | 0.00 | 0.00 | 66 | 1016.8 |
| 20260905162153 | 61 | 5 | 4.0 | 5.0 | 0.00 | 0.00 | 0.00 | 66 | 1016.8 |
| 20260905162131 | 61 | 347 | 2.0 | 7.0 | 0.00 | 0.00 | 0.00 | 66 | 1016.8 |
| 20260905161814 | 62 | 292 | 2.0 | 7.0 | 0.00 | 0.00 | 0.00 | 68 | 1016.7 |
| 20260905161738 | 62 | 290 | 2.0 | 7.0 | 0.00 | 0.00 | 0.00 | 67 | 1016.8 |
| 20260905161715 | 62 | 352 | 2.0 | 7.0 | 0.00 | 0.00 | 0.00 | 66 | 1016.7 |
| 20260905161653 | 62 | 323 | 1.0 | 7.0 | 0.00 | 0.00 | 0.00 | 67 | 1016.7 |
| 20260905161631 | 62 | 327 | 1.0 | 7.0 | 0.00 | 0.00 | 0.00 | 67 | 1016.7 |
| 20260905161610 | 62 | 290 | 3.0 | 7.0 | 0.00 | 0.00 | 0.00 | 67 | 1016.7 |
| 20260905161303 | 62 | 349 | 3.0 | 7.0 | 0.00 | 0.00 | 0.00 | 66 | 1016.6 |
| 20260905161009 | 62 | 291 | 3.0 | 6.0 | 0.00 | 0.00 | 0.00 | 66 | 1016.6 |
| 20260905160948 | 62 | 298 | 3.0 | 6.0 | 0.00 | 0.00 | 0.00 | 66 | 1016.6 |
| 20260905160601 | 62 | 347 | 3.0 | 8.0 | 0.00 | 0.00 | 0.00 | 67 | 1016.6 |
| 20260905160504 | 62 | 319 | 3.0 | 8.0 | 0.00 | 0.00 | 0.00 | 68 | 1016.4 |
| 20260905160404 | 62 | 304 | 3.0 | 8.0 | 0.00 | 0.00 | 0.00 | 68 | 1016.4 |
| 20260905160340 | 62 | 315 | 2.0 | 8.0 | 0.00 | 0.00 | 0.00 | 68 | 1016.4 |
| 20260905160300 | 62 | 288 | 2.0 | 8.0 | 0.00 | 0.00 | 0.00 | 67 | 1016.4 |
| 20260905160239 | 62 | 349 | 2.0 | 8.0 | 0.00 | 0.00 | 0.00 | 67 | 1016.4 |
| 20260905160216 | 62 | 307 | 2.0 | 8.0 | 0.00 | 0.00 | 0.00 | 67 | 1016.3 |
| 20260905155923 | 62 | 281 | 4.0 | 8.0 | 0.00 | 0.00 | 0.00 | 66 | 1016.3 |
| 20260905155904 | 62 | 324 | 3.0 | 8.0 | 0.00 | 0.00 | 0.00 | 66 | 1016.4 |
| 20260905155826 | 62 | 274 | 2.0 | 11.0 | 0.00 | 0.00 | 0.00 | 66 | 1016.3 |
| 20260905155805 | 62 | 283 | 2.0 | 11.0 | 0.00 | 0.00 | 0.00 | 67 | 1016.3 |
| 20260905155231 | 62 | 343 | 2.0 | 11.0 | 0.00 | 0.00 | 0.00 | 69 | 1016.3 |
| 20260905155154 | 62 | 333 | 2.0 | 11.0 | 0.00 | 0.00 | 0.00 | 69 | 1016.3 |
| 20260905155132 | 61 | 272 | 3.0 | 11.0 | 0.00 | 0.00 | 0.00 | 69 | 1016.3 |
| 20260905154801 | 61 | 5 | 5.0 | 11.0 | 0.00 | 0.00 | 0.00 | 68 | 1016.3 |
| 20260905154714 | 61 | 299 | 3.0 | 11.0 | 0.00 | 0.00 | 0.00 | 67 | 1016.3 |
| 20260905154600 | 62 | 11 | 3.0 | 9.0 | 0.00 | 0.00 | 0.00 | 69 | 1016.3 |
| 20260905154537 | 61 | 306 | 4.0 | 9.0 | 0.00 | 0.00 | 0.00 | 68 | 1016.4 |
| 20260905154515 | 61 | 292 | 4.0 | 9.0 | 0.00 | 0.00 | 0.00 | 68 | 1016.3 |
| 20260905154454 | 61 | 288 | 4.0 | 9.0 | 0.00 | 0.00 | 0.00 | 68 | 1016.3 |
| 20260905154431 | 61 | 250 | 2.0 | 9.0 | 0.00 | 0.00 | 0.00 | 69 | 1016.3 |
| 20260905154124 | 61 | 240 | 2.0 | 7.0 | 0.00 | 0.00 | 0.00 | 69 | 1016.3 |
| 20260905154103 | 61 | 301 | 3.0 | 7.0 | 0.00 | 0.00 | 0.00 | 68 | 1016.3 |
| 20260905154043 | 61 | 298 | 4.0 | 7.0 | 0.00 | 0.00 | 0.00 | 69 | 1016.3 |
| 20260905154020 | 61 | 302 | 4.0 | 7.0 | 0.00 | 0.00 | 0.00 | 68 | 1016.3 |
| 20260905153443 | 61 | 316 | 3.0 | 9.0 | 0.00 | 0.00 | 0.00 | 69 | 1016.3 |
| 20260905153420 | 61 | 286 | 3.0 | 9.0 | 0.00 | 0.00 | 0.00 | 69 | 1016.3 |
| 20260905153357 | 61 | 290 | 2.0 | 9.0 | 0.00 | 0.00 | 0.00 | 69 | 1016.3 |
| 20260905153324 | 61 | 280 | 2.0 | 9.0 | 0.00 | 0.00 | 0.00 | 70 | 1016.3 |
| 20260905153032 | 61 | 279 | 4.0 | 9.0 | 0.00 | 0.00 | 0.00 | 71 | 1016.3 |
| 20260905152705 | 61 | 260 | 6.0 | 9.0 | 0.00 | 0.00 | 0.00 | 70 | 1016.4 |
| 20260905152600 | 61 | 292 | 4.0 | 9.0 | 0.00 | 0.00 | 0.00 | 70 | 1016.4 |
| 20260905152502 | 61 | 263 | 3.0 | 9.0 | 0.00 | 0.00 | 0.00 | 70 | 1016.4 |
| 20260905152401 | 61 | 263 | 3.0 | 7.0 | 0.00 | 0.00 | 0.00 | 71 | 1016.6 |
| 20260905152306 | 61 | 280 | 2.0 | 7.0 | 0.00 | 0.00 | 0.00 | 71 | 1016.6 |
| 20260905152202 | 61 | 284 | 2.0 | 7.0 | 0.00 | 0.00 | 0.00 | 72 | 1016.6 |
| 20260905152102 | 61 | 202 | 2.0 | 7.0 | 0.00 | 0.00 | 0.00 | 71 | 1016.6 |
| 20260905152000 | 60 | 273 | 3.0 | 7.0 | 0.00 | 0.00 | 0.00 | 71 | 1016.6 |
| 20260905151902 | 60 | 324 | 3.0 | 7.0 | 0.00 | 0.00 | 0.00 | 71 | 1016.6 |
| 20260905151802 | 60 | 327 | 3.0 | 7.0 | 0.00 | 0.00 | 0.00 | 70 | 1016.6 |
| 20260905151702 | 60 | 248 | 3.0 | 7.0 | 0.00 | 0.00 | 0.00 | 70 | 1016.6 |
| 20260905151602 | 60 | 281 | 2.0 | 5.0 | 0.00 | 0.00 | 0.00 | 71 | 1016.6 |
| 20260905151515 | 60 | 267 | 1.0 | 5.0 | 0.00 | 0.00 | 0.00 | 73 | 1016.6 |
| 20260905151452 | 60 | 342 | 0.0 | 6.0 | 0.00 | 0.00 | 0.00 | 73 | 1016.7 |
| 20260905151429 | 60 | 267 | 1.0 | 6.0 | 0.00 | 0.00 | 0.00 | 74 | 1016.7 |
| 20260905151040 | 60 | 304 | 2.0 | 6.0 | 0.00 | 0.00 | 0.00 | 74 | 1016.7 |
| 20260905150940 | 60 | 277 | 2.0 | 6.0 | 0.00 | 0.00 | 0.00 | 74 | 1016.7 |
| 20260905150839 | 60 | 286 | 2.0 | 6.0 | 0.00 | 0.00 | 0.00 | 73 | 1016.6 |
| 20260905150738 | 60 | 282 | 2.0 | 6.0 | 0.00 | 0.00 | 0.00 | 73 | 1016.7 |
| 20260905150641 | 60 | 259 | 2.0 | 6.0 | 0.00 | 0.00 | 0.00 | 73 | 1016.6 |
| 20260905150537 | 60 | 281 | 2.0 | 6.0 | 0.00 | 0.00 | 0.00 | 72 | 1016.6 |
| 20260905150437 | 60 | 301 | 1.0 | 4.0 | 0.00 | 0.00 | 0.00 | 73 | 1016.6 |
| 20260905150335 | 60 | 290 | 0.0 | 3.0 | 0.00 | 0.00 | 0.00 | 74 | 1016.7 |
| 20260905150234 | 60 | 5 | 0.0 | 3.0 | 0.00 | 0.00 | 0.00 | 76 | 1016.7 |
| 20260905150131 | 60 | 5 | 0.0 | 3.0 | 0.00 | 0.00 | 0.00 | 76 | 1016.6 |
| 20260905150036 | 59 | 5 | 0.0 | 3.0 | 0.00 | 0.00 | 0.00 | 74 | 1016.6 |
| 20260905150014 | 59 | 5 | 0.0 | 3.0 | 0.00 | 0.00 | 0.00 | 74 | 1016.6 |
| 20260905145952 | 59 | 5 | 0.0 | 3.0 | 0.00 | 0.00 | 0.00 | 75 | 1016.6 |
| 20260905145934 | 59 | 5 | 0.0 | 3.0 | 0.00 | 0.00 | 0.00 | 76 | 1016.6 |
| 20260905145859 | 59 | 5 | 0.0 | 3.0 | 0.00 | 0.00 | 0.00 | 75 | 1016.6 |
| 20260905145838 | 59 | 5 | 1.0 | 3.0 | 0.00 | 0.00 | 0.00 | 75 | 1016.6 |
| 20260905145816 | 59 | 10 | 1.0 | 3.0 | 0.00 | 0.00 | 0.00 | 75 | 1016.6 |
| 20260905145758 | 59 | 322 | 0.0 | 0.0 | 0.00 | 0.00 | 0.00 | 77 | 1016.6 |
| 20260905145735 | 58 | 322 | 0.0 | 0.0 | 0.00 | 0.00 | 0.00 | 77 | 1016.6 |
| 20260905145432 | 58 | 322 | 0.0 | 0.0 | 0.00 | 0.00 | 0.00 | 77 | 1016.6 |
| 20260905144604 | 58 | 322 | 0.0 | 1.0 | 0.00 | 0.00 | 0.00 | 79 | 1016.6 |
| 20260905144505 | 58 | 322 | 0.0 | 1.0 | 0.00 | 0.00 | 0.00 | 80 | 1016.6 |
| 20260905144401 | 58 | 322 | 0.0 | 1.0 | 0.00 | 0.00 | 0.00 | 79 | 1016.4 |
| 20260905144304 | 58 | 322 | 0.0 | 1.0 | 0.00 | 0.00 | 0.00 | 79 | 1016.4 |
| 20260905144202 | 58 | 322 | 0.0 | 1.0 | 0.00 | 0.00 | 0.00 | 79 | 1016.6 |
| 20260905144102 | 58 | 322 | 0.0 | 1.0 | 0.00 | 0.00 | 0.00 | 79 | 1016.4 |
| 20260905144002 | 57 | 322 | 0.0 | 1.0 | 0.00 | 0.00 | 0.00 | 79 | 1016.4 |
| 20260905143904 | 58 | 322 | 0.0 | 1.0 | 0.00 | 0.00 | 0.00 | 79 | 1016.6 |
| 20260905143804 | 58 | 322 | 0.0 | 1.0 | 0.00 | 0.00 | 0.00 | 80 | 1016.4 |
| 20260905143703 | 58 | 178 | 0.0 | 0.0 | 0.00 | 0.00 | 0.00 | 79 | 1016.6 |
| 20260905143613 | 58 | 178 | 0.0 | 0.0 | 0.00 | 0.00 | 0.00 | 79 | 1016.6 |
| 20260905143555 | 58 | 178 | 0.0 | 0.0 | 0.00 | 0.00 | 0.00 | 79 | 1016.6 |
| 20260905143535 | 57 | 178 | 0.0 | 0.0 | 0.00 | 0.00 | 0.00 | 78 | 1016.6 |
| 20260905143229 | 57 | 178 | 0.0 | 0.0 | 0.00 | 0.00 | 0.00 | 77 | 1016.6 |
| 20260905143153 | 57 | 178 | 0.0 | 0.0 | 0.00 | 0.00 | 0.00 | 77 | 1016.7 |
| 20260905143132 | 57 | 178 | 0.0 | 0.0 | 0.00 | 0.00 | 0.00 | 78 | 1016.7 |
| 20260905142803 | 57 | 178 | 0.0 | 0.0 | 0.00 | 0.00 | 0.00 | 77 | 1016.6 |
| 20260905142702 | 57 | 178 | 0.0 | 0.0 | 0.00 | 0.00 | 0.00 | 77 | 1016.6 |
| 20260905142616 | 57 | 178 | 0.0 | 0.0 | 0.00 | 0.00 | 0.00 | 77 | 1016.4 |
| 20260905142555 | 57 | 178 | 0.0 | 0.0 | 0.00 | 0.00 | 0.00 | 76 | 1016.4 |
| 20260905142535 | 57 | 178 | 0.0 | 0.0 | 0.00 | 0.00 | 0.00 | 77 | 1016.4 |
| 20260905142203 | 57 | 178 | 0.0 | 0.0 | 0.00 | 0.00 | 0.00 | 77 | 1016.4 |
| 20260905142117 | 57 | 178 | 0.0 | 0.0 | 0.00 | 0.00 | 0.00 | 77 | 1016.4 |
| 20260905142053 | 57 | 178 | 0.0 | 0.0 | 0.00 | 0.00 | 0.00 | 77 | 1016.4 |
| 20260905142034 | 57 | 178 | 0.0 | 0.0 | 0.00 | 0.00 | 0.00 | 77 | 1016.4 |
| 20260905142014 | 57 | 178 | 0.0 | 0.0 | 0.00 | 0.00 | 0.00 | 76 | 1016.4 |
| 20260905141706 | 57 | 178 | 0.0 | 0.0 | 0.00 | 0.00 | 0.00 | 76 | 1016.4 |
| 20260905141336 | 57 | 178 | 0.0 | 0.0 | 0.00 | 0.00 | 0.00 | 76 | 1016.4 |
| 20260905141235 | 57 | 178 | 0.0 | 0.0 | 0.00 | 0.00 | 0.00 | 76 | 1016.4 |
| 20260905141156 | 57 | 178 | 0.0 | 0.0 | 0.00 | 0.00 | 0.00 | 76 | 1016.6 |
| 20260905141119 | 57 | 178 | 0.0 | 0.0 | 0.00 | 0.00 | 0.00 | 76 | 1016.6 |
| 20260905141059 | 57 | 178 | 0.0 | 0.0 | 0.00 | 0.00 | 0.00 | 76 | 1016.4 |
| 20260905140730 | 57 | 178 | 0.0 | 0.0 | 0.00 | 0.00 | 0.00 | 76 | 1016.6 |
| 20260905140631 | 57 | 178 | 0.0 | 0.0 | 0.00 | 0.00 | 0.00 | 76 | 1016.6 |
| 20260905140529 | 57 | 178 | 0.0 | 0.0 | 0.00 | 0.00 | 0.00 | 76 | 1016.6 |
| 20260905140430 | 57 | 178 | 0.0 | 0.0 | 0.00 | 0.00 | 0.00 | 76 | 1016.6 |
| 20260905140329 | 57 | 178 | 0.0 | 0.0 | 0.00 | 0.00 | 0.00 | 76 | 1016.4 |
| 20260905140252 | 57 | 178 | 0.0 | 0.0 | 0.00 | 0.00 | 0.00 | 76 | 1016.6 |
| 20260905140231 | 57 | 178 | 0.0 | 0.0 | 0.00 | 0.00 | 0.00 | 76 | 1016.6 |
| 20260905140156 | 57 | 178 | 0.0 | 0.0 | 0.00 | 0.00 | 0.00 | 76 | 1016.4 |
| 20260905135830 | 57 | 178 | 0.0 | 0.0 | 0.00 | 0.00 | 0.00 | 76 | 1016.4 |
| 20260905135729 | 57 | 178 | 0.0 | 0.0 | 0.00 | 0.00 | 0.00 | 76 | 1016.4 |
| 20260905135627 | 57 | 178 | 0.0 | 0.0 | 0.00 | 0.00 | 0.00 | 76 | 1016.4 |
| 20260905135522 | 57 | 178 | 0.0 | 0.0 | 0.00 | 0.00 | 0.00 | 76 | 1016.6 |
| 20260905135410 | 57 | 178 | 0.0 | 0.0 | 0.00 | 0.00 | 0.00 | 76 | 1016.6 |
| 20260905135334 | 57 | 178 | 0.0 | 0.0 | 0.00 | 0.00 | 0.00 | 76 | 1016.4 |
| 20260905135310 | 57 | 178 | 0.0 | 0.0 | 0.00 | 0.00 | 0.00 | 76 | 1016.6 |
| 20260905135251 | 57 | 178 | 0.0 | 0.0 | 0.00 | 0.00 | 0.00 | 76 | 1016.6 |
| 20260905134903 | 57 | 178 | 0.0 | 0.0 | 0.00 | 0.00 | 0.00 | 76 | 1016.6 |
| 20260905134803 | 57 | 178 | 0.0 | 0.0 | 0.00 | 0.00 | 0.00 | 76 | 1016.4 |
| 20260905134703 | 57 | 178 | 0.0 | 0.0 | 0.00 | 0.00 | 0.00 | 76 | 1016.4 |
| 20260905134614 | 57 | 178 | 0.0 | 0.0 | 0.00 | 0.00 | 0.00 | 76 | 1016.4 |
| 20260905134555 | 57 | 178 | 0.0 | 0.0 | 0.00 | 0.00 | 0.00 | 76 | 1016.4 |
| 20260905134532 | 57 | 178 | 0.0 | 0.0 | 0.00 | 0.00 | 0.00 | 76 | 1016.3 |
| 20260905134202 | 57 | 178 | 0.0 | 0.0 | 0.00 | 0.00 | 0.00 | 76 | 1016.2 |
| 20260905134102 | 57 | 178 | 0.0 | 0.0 | 0.00 | 0.00 | 0.00 | 76 | 1016.2 |
| 20260905134001 | 57 | 178 | 0.0 | 0.0 | 0.00 | 0.00 | 0.00 | 76 | 1016.2 |
| 20260905133904 | 57 | 178 | 0.0 | 0.0 | 0.00 | 0.00 | 0.00 | 76 | 1016.2 |
| 20260905133803 | 57 | 178 | 0.0 | 0.0 | 0.00 | 0.00 | 0.00 | 76 | 1016.1 |
| 20260905133701 | 57 | 178 | 0.0 | 0.0 | 0.00 | 0.00 | 0.00 | 76 | 1016.1 |
| 20260905133600 | 57 | 178 | 0.0 | 0.0 | 0.00 | 0.00 | 0.00 | 76 | 1016.1 |
| 20260905133504 | 57 | 178 | 0.0 | 0.0 | 0.00 | 0.00 | 0.00 | 76 | 1016.1 |
| 20260905133406 | 57 | 178 | 0.0 | 0.0 | 0.00 | 0.00 | 0.00 | 76 | 1016.1 |
| 20260905133303 | 56 | 178 | 0.0 | 0.0 | 0.00 | 0.00 | 0.00 | 76 | 1016.0 |
| 20260905133201 | 56 | 178 | 0.0 | 0.0 | 0.00 | 0.00 | 0.00 | 76 | 1016.0 |
| 20260905133116 | 56 | 178 | 0.0 | 0.0 | 0.00 | 0.00 | 0.00 | 76 | 1016.0 |
| 20260905133001 | 56 | 178 | 0.0 | 0.0 | 0.00 | 0.00 | 0.00 | 76 | 1016.0 |
| 20260905132903 | 56 | 178 | 0.0 | 0.0 | 0.00 | 0.00 | 0.00 | 76 | 1016.0 |
| 20260905132801 | 56 | 178 | 0.0 | 0.0 | 0.00 | 0.00 | 0.00 | 76 | 1015.9 |
| 20260905132702 | 56 | 178 | 0.0 | 0.0 | 0.00 | 0.00 | 0.00 | 76 | 1015.9 |
| 20260905132612 | 56 | 178 | 0.0 | 0.0 | 0.00 | 0.00 | 0.00 | 76 | 1015.9 |
| 20260905132502 | 56 | 178 | 0.0 | 0.0 | 0.00 | 0.00 | 0.00 | 76 | 1016.0 |
| 20260905132401 | 56 | 178 | 0.0 | 0.0 | 0.00 | 0.00 | 0.00 | 77 | 1016.0 |
| 20260905132305 | 56 | 178 | 0.0 | 0.0 | 0.00 | 0.00 | 0.00 | 77 | 1016.0 |
| 20260905132201 | 56 | 178 | 0.0 | 0.0 | 0.00 | 0.00 | 0.00 | 77 | 1016.0 |
| 20260905132126 | 56 | 178 | 0.0 | 0.0 | 0.00 | 0.00 | 0.00 | 77 | 1016.0 |
| 20260905132049 | 56 | 178 | 0.0 | 0.0 | 0.00 | 0.00 | 0.00 | 76 | 1016.0 |
| 20260905132030 | 56 | 178 | 0.0 | 0.0 | 0.00 | 0.00 | 0.00 | 76 | 1016.0 |
| 20260905131701 | 56 | 178 | 0.0 | 0.0 | 0.00 | 0.00 | 0.00 | 76 | 1016.0 |
| 20260905131609 | 56 | 178 | 0.0 | 0.0 | 0.00 | 0.00 | 0.00 | 76 | 1016.0 |
| 20260905131503 | 56 | 178 | 0.0 | 0.0 | 0.00 | 0.00 | 0.00 | 76 | 1015.9 |
| 20260905131402 | 56 | 178 | 0.0 | 0.0 | 0.00 | 0.00 | 0.00 | 76 | 1016.0 |
| 20260905131304 | 56 | 178 | 0.0 | 0.0 | 0.00 | 0.00 | 0.00 | 76 | 1016.0 |
| 20260905131201 | 56 | 178 | 0.0 | 0.0 | 0.00 | 0.00 | 0.00 | 76 | 1016.0 |
| 20260905131108 | 56 | 178 | 0.0 | 0.0 | 0.00 | 0.00 | 0.00 | 76 | 1016.0 |
| 20260905131002 | 56 | 178 | 0.0 | 0.0 | 0.00 | 0.00 | 0.00 | 76 | 1016.0 |
| 20260905130905 | 56 | 178 | 0.0 | 0.0 | 0.00 | 0.00 | 0.00 | 77 | 1016.0 |
| 20260905130848 | 56 | 178 | 0.0 | 0.0 | 0.00 | 0.00 | 0.00 | 76 | 1016.0 |
| 20260905130827 | 56 | 178 | 0.0 | 0.0 | 0.00 | 0.00 | 0.00 | 76 | 1015.9 |
| 20260905130807 | 56 | 178 | 0.0 | 0.0 | 0.00 | 0.00 | 0.00 | 76 | 1015.9 |
| 20260905130733 | 56 | 178 | 0.0 | 0.0 | 0.00 | 0.00 | 0.00 | 76 | 1015.9 |
| 20260905130444 | 56 | 178 | 0.0 | 0.0 | 0.00 | 0.00 | 0.00 | 75 | 1015.9 |
| 20260905130151 | 56 | 178 | 0.0 | 0.0 | 0.00 | 0.00 | 0.00 | 75 | 1015.9 |
| 20260905130115 | 56 | 178 | 0.0 | 0.0 | 0.00 | 0.00 | 0.00 | 75 | 1015.9 |
| 20260905130058 | 56 | 178 | 0.0 | 0.0 | 0.00 | 0.00 | 0.00 | 75 | 1015.9 |
| 20260905130038 | 56 | 178 | 0.0 | 0.0 | 0.00 | 0.00 | 0.00 | 75 | 1015.9 |
| 20260905130019 | 56 | 178 | 0.0 | 0.0 | 0.00 | 0.00 | 0.00 | 75 | 1015.8 |
| 20260905125959 | 56 | 178 | 0.0 | 0.0 | 0.00 | 0.00 | 0.00 | 75 | 1015.9 |
| 20260905125659 | 56 | 178 | 0.0 | 0.0 | 0.00 | 0.00 | 0.00 | 75 | 1015.8 |
| 20260905125104 | 56 | 178 | 0.0 | 0.0 | 0.00 | 0.00 | 0.00 | 75 | 1015.8 |
| 20260905125001 | 56 | 178 | 0.0 | 0.0 | 0.00 | 0.00 | 0.00 | 75 | 1015.8 |
| 20260905124903 | 56 | 178 | 0.0 | 0.0 | 0.00 | 0.00 | 0.00 | 75 | 1015.8 |
| 20260905124802 | 56 | 178 | 0.0 | 0.0 | 0.00 | 0.00 | 0.00 | 75 | 1015.8 |
| 20260905124703 | 57 | 178 | 0.0 | 0.0 | 0.00 | 0.00 | 0.00 | 75 | 1015.8 |
| 20260905124601 | 57 | 178 | 0.0 | 0.0 | 0.00 | 0.00 | 0.00 | 75 | 1015.8 |
| 20260905124504 | 57 | 178 | 0.0 | 0.0 | 0.00 | 0.00 | 0.00 | 75 | 1015.8 |
| 20260905124400 | 57 | 178 | 0.0 | 0.0 | 0.00 | 0.00 | 0.00 | 75 | 1015.8 |
| 20260905124304 | 57 | 178 | 0.0 | 0.0 | 0.00 | 0.00 | 0.00 | 75 | 1015.7 |
| 20260905124218 | 57 | 178 | 0.0 | 0.0 | 0.00 | 0.00 | 0.00 | 75 | 1015.7 |
| 20260905124159 | 57 | 178 | 0.0 | 0.0 | 0.00 | 0.00 | 0.00 | 75 | 1015.7 |
| 20260905124123 | 57 | 178 | 0.0 | 0.0 | 0.00 | 0.00 | 0.00 | 75 | 1015.7 |
| 20260905124103 | 57 | 178 | 0.0 | 0.0 | 0.00 | 0.00 | 0.00 | 75 | 1015.7 |
| 20260905124041 | 57 | 178 | 0.0 | 0.0 | 0.00 | 0.00 | 0.00 | 75 | 1015.7 |
| 20260905123758 | 57 | 178 | 0.0 | 0.0 | 0.00 | 0.00 | 0.00 | 74 | 1015.7 |
| 20260905123724 | 57 | 178 | 0.0 | 0.0 | 0.00 | 0.00 | 0.00 | 74 | 1015.7 |
| 20260905123703 | 57 | 178 | 0.0 | 0.0 | 0.00 | 0.00 | 0.00 | 74 | 1015.7 |
| 20260905123109 | 57 | 178 | 0.0 | 0.0 | 0.00 | 0.00 | 0.00 | 74 | 1015.7 |
| 20260905123030 | 57 | 178 | 0.0 | 0.0 | 0.00 | 0.00 | 0.00 | 74 | 1015.7 |
| 20260905123014 | 57 | 178 | 0.0 | 0.0 | 0.00 | 0.00 | 0.00 | 74 | 1015.7 |
| 20260905122952 | 57 | 178 | 0.0 | 0.0 | 0.00 | 0.00 | 0.00 | 74 | 1015.7 |
| 20260905122701 | 57 | 178 | 0.0 | 0.0 | 0.00 | 0.00 | 0.00 | 74 | 1015.7 |
| 20260905122629 | 57 | 178 | 0.0 | 0.0 | 0.00 | 0.00 | 0.00 | 74 | 1015.7 |
| 20260905122306 | 57 | 178 | 0.0 | 0.0 | 0.00 | 0.00 | 0.00 | 74 | 1015.7 |
| 20260905122200 | 57 | 178 | 0.0 | 0.0 | 0.00 | 0.00 | 0.00 | 74 | 1015.6 |
| 20260905122103 | 57 | 178 | 0.0 | 0.0 | 0.00 | 0.00 | 0.00 | 74 | 1015.6 |
| 20260905122002 | 57 | 178 | 0.0 | 0.0 | 0.00 | 0.00 | 0.00 | 74 | 1015.5 |
| 20260905121900 | 57 | 178 | 0.0 | 0.0 | 0.00 | 0.00 | 0.00 | 74 | 1015.5 |
| 20260905121800 | 57 | 178 | 0.0 | 0.0 | 0.00 | 0.00 | 0.00 | 74 | 1015.5 |
| 20260905121659 | 57 | 178 | 0.0 | 0.0 | 0.00 | 0.00 | 0.00 | 74 | 1015.5 |
| 20260905121559 | 57 | 178 | 0.0 | 0.0 | 0.00 | 0.00 | 0.00 | 74 | 1015.5 |
| 20260905121518 | 57 | 178 | 0.0 | 0.0 | 0.00 | 0.00 | 0.00 | 74 | 1015.5 |
| 20260905121455 | 57 | 178 | 0.0 | 0.0 | 0.00 | 0.00 | 0.00 | 73 | 1015.5 |
| 20260905121432 | 57 | 178 | 0.0 | 0.0 | 0.00 | 0.00 | 0.00 | 74 | 1015.5 |
| 20260905121415 | 57 | 178 | 0.0 | 0.0 | 0.00 | 0.00 | 0.00 | 73 | 1015.5 |
| 20260905121110 | 57 | 178 | 0.0 | 0.0 | 0.00 | 0.00 | 0.00 | 73 | 1015.5 |
| 20260905120733 | 57 | 178 | 0.0 | 0.0 | 0.00 | 0.00 | 0.00 | 73 | 1015.5 |
| 20260905120632 | 57 | 178 | 0.0 | 0.0 | 0.00 | 0.00 | 0.00 | 73 | 1015.4 |
| 20260905120540 | 57 | 178 | 0.0 | 0.0 | 0.00 | 0.00 | 0.00 | 73 | 1015.4 |
| 20260905120429 | 57 | 178 | 0.0 | 0.0 | 0.00 | 0.00 | 0.00 | 73 | 1015.4 |
| 20260905120330 | 57 | 178 | 0.0 | 0.0 | 0.00 | 0.00 | 0.00 | 73 | 1015.4 |
| 20260905120249 | 57 | 178 | 0.0 | 0.0 | 0.00 | 0.00 | 0.00 | 73 | 1015.3 |
| 20260905120228 | 58 | 178 | 0.0 | 0.0 | 0.00 | 0.00 | 0.00 | 73 | 1015.4 |
| 20260905120211 | 58 | 178 | 0.0 | 0.0 | 0.00 | 0.00 | 0.00 | 72 | 1015.3 |
| 20260905115842 | 58 | 178 | 0.0 | 0.0 | 0.00 | 0.00 | 0.00 | 72 | 1015.3 |
| 20260905115820 | 58 | 178 | 0.0 | 1.0 | 0.00 | 0.00 | 0.00 | 72 | 1015.4 |
| 20260905115802 | 58 | 178 | 0.0 | 1.0 | 0.00 | 0.00 | 0.00 | 72 | 1015.3 |
| 20260905115429 | 58 | 178 | 0.0 | 2.0 | 0.00 | 0.00 | 0.00 | 72 | 1015.4 |
| 20260905115330 | 58 | 178 | 0.0 | 2.0 | 0.00 | 0.00 | 0.00 | 72 | 1015.4 |
| 20260905115229 | 58 | 178 | 0.0 | 2.0 | 0.00 | 0.00 | 0.00 | 72 | 1015.3 |
| 20260905115129 | 58 | 178 | 0.0 | 2.0 | 0.00 | 0.00 | 0.00 | 72 | 1015.3 |
| 20260905115033 | 58 | 178 | 0.0 | 2.0 | 0.00 | 0.00 | 0.00 | 72 | 1015.2 |
| 20260905114923 | 58 | 178 | 0.0 | 3.0 | 0.00 | 0.00 | 0.00 | 72 | 1015.2 |
| 20260905114813 | 58 | 185 | 0.0 | 3.0 | 0.00 | 0.00 | 0.00 | 71 | 1015.2 |
| 20260905114706 | 58 | 252 | 1.0 | 3.0 | 0.00 | 0.00 | 0.00 | 71 | 1015.1 |
| 20260905114602 | 58 | 249 | 1.0 | 3.0 | 0.00 | 0.00 | 0.00 | 71 | 1015.1 |
| 20260905114501 | 58 | 258 | 2.0 | 3.0 | 0.00 | 0.00 | 0.00 | 71 | 1015.1 |
| 20260905114402 | 58 | 259 | 1.0 | 3.0 | 0.00 | 0.00 | 0.00 | 71 | 1015.1 |
| 20260905114304 | 58 | 257 | 1.0 | 3.0 | 0.00 | 0.00 | 0.00 | 71 | 1015.0 |
| 20260905114202 | 58 | 266 | 1.0 | 3.0 | 0.00 | 0.00 | 0.00 | 71 | 1015.0 |
| 20260905114101 | 58 | 271 | 2.0 | 3.0 | 0.00 | 0.00 | 0.00 | 71 | 1015.0 |
| 20260905114000 | 58 | 265 | 1.0 | 3.0 | 0.00 | 0.00 | 0.00 | 71 | 1015.0 |
| 20260905113901 | 58 | 260 | 0.0 | 3.0 | 0.00 | 0.00 | 0.00 | 71 | 1015.0 |
| 20260905113801 | 58 | 259 | 0.0 | 3.0 | 0.00 | 0.00 | 0.00 | 71 | 1015.0 |
| 20260905113700 | 58 | 263 | 1.0 | 3.0 | 0.00 | 0.00 | 0.00 | 71 | 1015.0 |
| 20260905113601 | 58 | 263 | 1.0 | 4.0 | 0.00 | 0.00 | 0.00 | 71 | 1015.0 |
| 20260905113450 | 59 | 265 | 1.0 | 4.0 | 0.00 | 0.00 | 0.00 | 71 | 1015.0 |
| 20260905113344 | 59 | 275 | 1.0 | 4.0 | 0.00 | 0.00 | 0.00 | 70 | 1015.1 |
| 20260905113240 | 59 | 263 | 1.0 | 4.0 | 0.00 | 0.00 | 0.00 | 70 | 1015.0 |
| 20260905113139 | 59 | 265 | 1.0 | 4.0 | 0.00 | 0.00 | 0.00 | 70 | 1015.0 |
| 20260905113038 | 59 | 265 | 2.0 | 4.0 | 0.00 | 0.00 | 0.00 | 70 | 1015.0 |
| 20260905112945 | 59 | 265 | 2.0 | 4.0 | 0.00 | 0.00 | 0.00 | 70 | 1015.0 |
| 20260905112923 | 59 | 277 | 3.0 | 4.0 | 0.00 | 0.00 | 0.00 | 70 | 1014.9 |
| 20260905112901 | 59 | 274 | 2.0 | 4.0 | 0.00 | 0.00 | 0.00 | 70 | 1014.9 |
| 20260905112529 | 59 | 271 | 2.0 | 4.0 | 0.00 | 0.00 | 0.00 | 70 | 1015.0 |
| 20260905112431 | 59 | 266 | 2.0 | 4.0 | 0.00 | 0.00 | 0.00 | 70 | 1015.0 |
| 20260905112329 | 59 | 271 | 2.0 | 4.0 | 0.00 | 0.00 | 0.00 | 70 | 1015.0 |
| 20260905112231 | 59 | 270 | 2.0 | 4.0 | 0.00 | 0.00 | 0.00 | 70 | 1015.0 |
| 20260905112129 | 59 | 294 | 2.0 | 3.0 | 0.00 | 0.00 | 0.00 | 70 | 1015.0 |
| 20260905112030 | 59 | 271 | 2.0 | 4.0 | 0.00 | 0.00 | 0.00 | 70 | 1015.0 |
| 20260905111930 | 59 | 275 | 2.0 | 4.0 | 0.00 | 0.00 | 0.00 | 70 | 1015.1 |
| 20260905111832 | 59 | 284 | 2.0 | 4.0 | 0.00 | 0.00 | 0.00 | 69 | 1015.0 |
| 20260905111729 | 59 | 256 | 2.0 | 4.0 | 0.00 | 0.00 | 0.00 | 69 | 1015.0 |
| 20260905111650 | 59 | 267 | 2.0 | 4.0 | 0.00 | 0.00 | 0.00 | 69 | 1015.0 |
| 20260905111628 | 59 | 261 | 1.0 | 4.0 | 0.00 | 0.00 | 0.00 | 69 | 1015.0 |
| 20260905111551 | 59 | 271 | 2.0 | 4.0 | 0.00 | 0.00 | 0.00 | 69 | 1015.1 |
| 20260905111530 | 59 | 254 | 2.0 | 4.0 | 0.00 | 0.00 | 0.00 | 69 | 1015.1 |
| 20260905111508 | 59 | 267 | 2.0 | 4.0 | 0.00 | 0.00 | 0.00 | 69 | 1015.0 |
| 20260905111215 | 59 | 258 | 3.0 | 4.0 | 0.00 | 0.00 | 0.00 | 68 | 1015.0 |
| 20260905110834 | 59 | 260 | 1.0 | 3.0 | 0.00 | 0.00 | 0.00 | 68 | 1015.0 |
| 20260905110729 | 59 | 257 | 0.0 | 3.0 | 0.00 | 0.00 | 0.00 | 68 | 1015.0 |
| 20260905110630 | 59 | 256 | 0.0 | 3.0 | 0.00 | 0.00 | 0.00 | 68 | 1015.0 |
| 20260905110542 | 59 | 265 | 1.0 | 3.0 | 0.00 | 0.00 | 0.00 | 68 | 1015.0 |
| 20260905110507 | 59 | 263 | 1.0 | 3.0 | 0.00 | 0.00 | 0.00 | 68 | 1015.0 |
| 20260905110440 | 59 | 263 | 1.0 | 3.0 | 0.00 | 0.00 | 0.00 | 68 | 1014.9 |
| 20260905110419 | 59 | 282 | 1.0 | 3.0 | 0.00 | 0.00 | 0.00 | 68 | 1014.9 |
| 20260905110357 | 59 | 273 | 1.0 | 2.0 | 0.00 | 0.00 | 0.00 | 68 | 1014.9 |
| 20260905110336 | 59 | 239 | 1.0 | 2.0 | 0.00 | 0.00 | 0.00 | 68 | 1014.9 |
| 20260905110030 | 59 | 267 | 1.0 | 2.0 | 0.00 | 0.00 | 0.00 | 68 | 1015.0 |
| 20260905105737 | 59 | 334 | 1.0 | 3.0 | 0.00 | 0.00 | 0.00 | 68 | 1015.0 |
| 20260905105715 | 59 | 293 | 1.0 | 3.0 | 0.00 | 0.00 | 0.00 | 68 | 1014.9 |
| 20260905105330 | 59 | 292 | 0.0 | 3.0 | 0.00 | 0.00 | 0.00 | 68 | 1014.9 |
| 20260905105231 | 59 | 306 | 0.0 | 3.0 | 0.00 | 0.00 | 0.00 | 68 | 1014.9 |
| 20260905105130 | 59 | 269 | 0.0 | 3.0 | 0.00 | 0.00 | 0.00 | 68 | 1014.9 |
| 20260905105039 | 59 | 269 | 0.0 | 4.0 | 0.00 | 0.00 | 0.00 | 68 | 1015.0 |
| 20260905105004 | 59 | 269 | 1.0 | 4.0 | 0.00 | 0.00 | 0.00 | 68 | 1014.9 |
| 20260905104941 | 59 | 269 | 2.0 | 4.0 | 0.00 | 0.00 | 0.00 | 68 | 1014.9 |
| 20260905104921 | 59 | 274 | 2.0 | 4.0 | 0.00 | 0.00 | 0.00 | 67 | 1014.9 |
| 20260905104856 | 59 | 267 | 1.0 | 4.0 | 0.00 | 0.00 | 0.00 | 67 | 1015.0 |
| 20260905104549 | 59 | 272 | 2.0 | 4.0 | 0.00 | 0.00 | 0.00 | 67 | 1015.0 |
| 20260905104529 | 59 | 264 | 2.0 | 4.0 | 0.00 | 0.00 | 0.00 | 67 | 1015.0 |
| 20260905104506 | 59 | 264 | 2.0 | 4.0 | 0.00 | 0.00 | 0.00 | 67 | 1014.9 |
| 20260905104443 | 59 | 256 | 2.0 | 4.0 | 0.00 | 0.00 | 0.00 | 67 | 1015.0 |
| 20260905104137 | 59 | 261 | 2.0 | 4.0 | 0.00 | 0.00 | 0.00 | 67 | 1015.0 |
| 20260905104113 | 59 | 266 | 2.0 | 4.0 | 0.00 | 0.00 | 0.00 | 67 | 1015.0 |
| 20260905104053 | 59 | 263 | 2.0 | 4.0 | 0.00 | 0.00 | 0.00 | 67 | 1015.0 |
| 20260905103803 | 59 | 265 | 2.0 | 4.0 | 0.00 | 0.00 | 0.00 | 66 | 1015.0 |
| 20260905103724 | 59 | 263 | 2.0 | 4.0 | 0.00 | 0.00 | 0.00 | 66 | 1015.0 |
| 20260905103431 | 59 | 264 | 0.0 | 4.0 | 0.00 | 0.00 | 0.00 | 66 | 1015.0 |
| 20260905103141 | 59 | 258 | 1.0 | 2.0 | 0.00 | 0.00 | 0.00 | 66 | 1015.0 |
| 20260905103107 | 59 | 259 | 1.0 | 2.0 | 0.00 | 0.00 | 0.00 | 66 | 1015.0 |
| 20260905102813 | 59 | 267 | 0.0 | 2.0 | 0.00 | 0.00 | 0.00 | 65 | 1015.0 |
| 20260905102752 | 59 | 292 | 0.0 | 0.0 | 0.00 | 0.00 | 0.00 | 65 | 1014.9 |
| 20260905102736 | 59 | 292 | 0.0 | 0.0 | 0.00 | 0.00 | 0.00 | 65 | 1014.9 |
| 20260905102432 | 59 | 292 | 0.0 | 1.0 | 0.00 | 0.00 | 0.00 | 66 | 1014.9 |
| 20260905102100 | 59 | 292 | 0.0 | 2.0 | 0.00 | 0.00 | 0.00 | 65 | 1014.9 |
| 20260905102001 | 59 | 292 | 0.0 | 2.0 | 0.00 | 0.00 | 0.00 | 65 | 1014.9 |
| 20260905101901 | 59 | 292 | 0.0 | 2.0 | 0.00 | 0.00 | 0.00 | 65 | 1014.9 |
| 20260905101827 | 59 | 292 | 0.0 | 2.0 | 0.00 | 0.00 | 0.00 | 65 | 1014.9 |
| 20260905101806 | 59 | 292 | 0.0 | 2.0 | 0.00 | 0.00 | 0.00 | 65 | 1014.9 |
| 20260905101747 | 59 | 292 | 0.0 | 4.0 | 0.00 | 0.00 | 0.00 | 65 | 1014.9 |
| 20260905101730 | 59 | 292 | 1.0 | 4.0 | 0.00 | 0.00 | 0.00 | 65 | 1014.9 |
| 20260905101428 | 59 | 291 | 0.0 | 4.0 | 0.00 | 0.00 | 0.00 | 65 | 1015.0 |
| 20260905101055 | 59 | 250 | 1.0 | 4.0 | 0.00 | 0.00 | 0.00 | 65 | 1015.0 |
| 20260905100955 | 59 | 248 | 0.0 | 4.0 | 0.00 | 0.00 | 0.00 | 65 | 1015.0 |
| 20260905100853 | 59 | 288 | 1.0 | 4.0 | 0.00 | 0.00 | 0.00 | 65 | 1014.9 |
| 20260905100753 | 59 | 271 | 2.0 | 4.0 | 0.00 | 0.00 | 0.00 | 65 | 1014.9 |
| 20260905100653 | 59 | 273 | 1.0 | 4.0 | 0.00 | 0.00 | 0.00 | 65 | 1014.9 |
| 20260905100553 | 59 | 256 | 2.0 | 4.0 | 0.00 | 0.00 | 0.00 | 65 | 1014.9 |
| 20260905100501 | 59 | 254 | 3.0 | 4.0 | 0.00 | 0.00 | 0.00 | 65 | 1015.0 |
| 20260905100419 | 59 | 296 | 2.0 | 4.0 | 0.00 | 0.00 | 0.00 | 65 | 1014.9 |
| 20260905100356 | 59 | 270 | 1.0 | 4.0 | 0.00 | 0.00 | 0.00 | 65 | 1014.9 |
| 20260905100331 | 59 | 277 | 1.0 | 3.0 | 0.00 | 0.00 | 0.00 | 65 | 1015.0 |
| 20260905100035 | 59 | 282 | 2.0 | 3.0 | 0.00 | 0.00 | 0.00 | 65 | 1014.9 |
| 20260905100000 | 59 | 257 | 1.0 | 3.0 | 0.00 | 0.00 | 0.00 | 65 | 1015.0 |
| 20260905095631 | 59 | 271 | 0.0 | 3.0 | 0.00 | 0.00 | 0.00 | 65 | 1015.0 |
| 20260905095529 | 59 | 281 | 0.0 | 3.0 | 0.00 | 0.00 | 0.00 | 65 | 1015.0 |
| 20260905095436 | 59 | 281 | 1.0 | 3.0 | 0.00 | 0.00 | 0.00 | 65 | 1015.0 |
| 20260905095330 | 59 | 279 | 1.0 | 3.0 | 0.00 | 0.00 | 0.00 | 65 | 1015.0 |
| 20260905095231 | 59 | 284 | 0.0 | 3.0 | 0.00 | 0.00 | 0.00 | 65 | 1015.0 |
| 20260905095131 | 59 | 263 | 0.0 | 2.0 | 0.00 | 0.00 | 0.00 | 65 | 1014.9 |
| 20260905095032 | 59 | 263 | 0.0 | 2.0 | 0.00 | 0.00 | 0.00 | 65 | 1015.0 |
| 20260905095006 | 59 | 263 | 0.0 | 2.0 | 0.00 | 0.00 | 0.00 | 65 | 1015.0 |
| 20260905094932 | 59 | 263 | 0.0 | 2.0 | 0.00 | 0.00 | 0.00 | 65 | 1015.0 |
| 20260905094913 | 59 | 263 | 1.0 | 2.0 | 0.00 | 0.00 | 0.00 | 64 | 1015.0 |
| 20260905094851 | 59 | 269 | 0.0 | 2.0 | 0.00 | 0.00 | 0.00 | 64 | 1015.0 |
| 20260905094826 | 59 | 269 | 0.0 | 2.0 | 0.00 | 0.00 | 0.00 | 65 | 1015.0 |
| 20260905094751 | 59 | 291 | 0.0 | 2.0 | 0.00 | 0.00 | 0.00 | 65 | 1015.0 |
| 20260905094232 | 60 | 276 | 0.0 | 2.0 | 0.00 | 0.00 | 0.00 | 65 | 1015.0 |
| 20260905093902 | 60 | 276 | 0.0 | 2.0 | 0.00 | 0.00 | 0.00 | 65 | 1014.9 |
| 20260905093802 | 60 | 276 | 0.0 | 2.0 | 0.00 | 0.00 | 0.00 | 64 | 1015.0 |
| 20260905093701 | 60 | 276 | 0.0 | 2.0 | 0.00 | 0.00 | 0.00 | 64 | 1015.0 |
| 20260905093603 | 60 | 276 | 0.0 | 2.0 | 0.00 | 0.00 | 0.00 | 64 | 1015.0 |
| 20260905093519 | 60 | 276 | 0.0 | 2.0 | 0.00 | 0.00 | 0.00 | 64 | 1015.0 |
| 20260905093443 | 60 | 276 | 0.0 | 2.0 | 0.00 | 0.00 | 0.00 | 64 | 1015.0 |
| 20260905093419 | 60 | 276 | 1.0 | 2.0 | 0.00 | 0.00 | 0.00 | 64 | 1015.1 |
| 20260905093358 | 60 | 276 | 0.0 | 2.0 | 0.00 | 0.00 | 0.00 | 63 | 1015.0 |
| 20260905093338 | 60 | 263 | 0.0 | 2.0 | 0.00 | 0.00 | 0.00 | 64 | 1015.1 |
| 20260905093316 | 60 | 240 | 0.0 | 1.0 | 0.00 | 0.00 | 0.00 | 64 | 1015.1 |
| 20260905092700 | 60 | 232 | 0.0 | 2.0 | 0.00 | 0.00 | 0.00 | 64 | 1015.1 |
| 20260905092602 | 60 | 177 | 0.0 | 3.0 | 0.00 | 0.00 | 0.00 | 63 | 1015.1 |
| 20260905092501 | 60 | 177 | 0.0 | 3.0 | 0.00 | 0.00 | 0.00 | 63 | 1015.1 |
| 20260905092403 | 60 | 177 | 0.0 | 3.0 | 0.00 | 0.00 | 0.00 | 63 | 1015.1 |
| 20260905092306 | 60 | 177 | 0.0 | 3.0 | 0.00 | 0.00 | 0.00 | 63 | 1015.1 |
| 20260905092203 | 60 | 177 | 0.0 | 3.0 | 0.00 | 0.00 | 0.00 | 63 | 1015.0 |
| 20260905092104 | 60 | 178 | 0.0 | 3.0 | 0.00 | 0.00 | 0.00 | 63 | 1015.0 |
| 20260905092002 | 60 | 184 | 1.0 | 3.0 | 0.00 | 0.00 | 0.00 | 63 | 1015.1 |
| 20260905091902 | 60 | 186 | 2.0 | 3.0 | 0.00 | 0.00 | 0.00 | 63 | 1015.1 |
| 20260905091803 | 60 | 186 | 1.0 | 3.0 | 0.00 | 0.00 | 0.00 | 63 | 1015.0 |
| 20260905091702 | 60 | 180 | 0.0 | 3.0 | 0.00 | 0.00 | 0.00 | 63 | 1015.0 |
| 20260905091604 | 60 | 186 | 0.0 | 1.0 | 0.00 | 0.00 | 0.00 | 63 | 1015.0 |
| 20260905091500 | 60 | 211 | 0.0 | 2.0 | 0.00 | 0.00 | 0.00 | 63 | 1015.0 |
| 20260905091415 | 60 | 214 | 0.0 | 2.0 | 0.00 | 0.00 | 0.00 | 63 | 1015.0 |
| 20260905091302 | 60 | 214 | 0.0 | 2.0 | 0.00 | 0.00 | 0.00 | 63 | 1015.0 |
| 20260905091201 | 60 | 214 | 1.0 | 2.0 | 0.00 | 0.00 | 0.00 | 63 | 1014.9 |
| 20260905091100 | 60 | 211 | 0.0 | 3.0 | 0.00 | 0.00 | 0.00 | 63 | 1014.9 |
| 20260905091002 | 60 | 213 | 0.0 | 3.0 | 0.00 | 0.00 | 0.00 | 63 | 1014.9 |
| 20260905090913 | 60 | 259 | 0.0 | 3.0 | 0.00 | 0.00 | 0.00 | 63 | 1014.9 |
| 20260905090803 | 60 | 259 | 1.0 | 3.0 | 0.00 | 0.00 | 0.00 | 63 | 1014.9 |
| 20260905090722 | 60 | 259 | 1.0 | 3.0 | 0.00 | 0.00 | 0.00 | 63 | 1014.8 |
| 20260905090702 | 60 | 259 | 1.0 | 3.0 | 0.00 | 0.00 | 0.00 | 63 | 1014.8 |
| 20260905090641 | 60 | 255 | 1.0 | 3.0 | 0.00 | 0.00 | 0.00 | 63 | 1014.8 |
| 20260905090302 | 60 | 279 | 1.0 | 3.0 | 0.00 | 0.00 | 0.00 | 63 | 1014.8 |
| 20260905090201 | 60 | 264 | 1.0 | 3.0 | 0.00 | 0.00 | 0.00 | 63 | 1014.7 |
| 20260905090101 | 60 | 278 | 1.0 | 3.0 | 0.00 | 0.00 | 0.00 | 63 | 1014.8 |
| 20260905090002 | 60 | 276 | 1.0 | 3.0 | 0.00 | 0.00 | 0.00 | 63 | 1014.7 |
| 20260905085906 | 60 | 276 | 1.0 | 3.0 | 0.00 | 0.00 | 0.00 | 63 | 1014.8 |
| 20260905085801 | 60 | 284 | 1.0 | 3.0 | 0.00 | 0.00 | 0.00 | 63 | 1014.7 |
| 20260905085700 | 60 | 280 | 1.0 | 3.0 | 0.00 | 0.00 | 0.00 | 63 | 1014.7 |
| 20260905085600 | 60 | 279 | 1.0 | 3.0 | 0.00 | 0.00 | 0.00 | 62 | 1014.7 |
| 20260905085502 | 60 | 282 | 1.0 | 3.0 | 0.00 | 0.00 | 0.00 | 62 | 1014.7 |
| 20260905085407 | 60 | 277 | 2.0 | 3.0 | 0.00 | 0.00 | 0.00 | 62 | 1014.7 |
| 20260905085300 | 60 | 277 | 2.0 | 3.0 | 0.00 | 0.00 | 0.00 | 62 | 1014.7 |
| 20260905085201 | 60 | 257 | 1.0 | 3.0 | 0.00 | 0.00 | 0.00 | 63 | 1014.7 |
| 20260905085101 | 60 | 271 | 1.0 | 3.0 | 0.00 | 0.00 | 0.00 | 62 | 1014.7 |
| 20260905085001 | 60 | 258 | 1.0 | 3.0 | 0.00 | 0.00 | 0.00 | 62 | 1014.7 |
| 20260905084904 | 60 | 261 | 1.0 | 6.0 | 0.00 | 0.00 | 0.00 | 63 | 1014.7 |
| 20260905084801 | 60 | 260 | 2.0 | 6.0 | 0.00 | 0.00 | 0.00 | 62 | 1014.7 |
| 20260905084702 | 60 | 236 | 2.0 | 6.0 | 0.00 | 0.00 | 0.00 | 62 | 1014.7 |
| 20260905084602 | 60 | 265 | 2.0 | 6.0 | 0.00 | 0.00 | 0.00 | 63 | 1014.6 |
| 20260905084501 | 60 | 272 | 1.0 | 6.0 | 0.00 | 0.00 | 0.00 | 63 | 1014.7 |
| 20260905084406 | 60 | 288 | 1.0 | 6.0 | 0.00 | 0.00 | 0.00 | 63 | 1014.6 |
| 20260905084317 | 60 | 285 | 1.0 | 6.0 | 0.00 | 0.00 | 0.00 | 63 | 1014.6 |
| 20260905084253 | 60 | 284 | 2.0 | 6.0 | 0.00 | 0.00 | 0.00 | 63 | 1014.6 |
| 20260905084232 | 60 | 255 | 2.0 | 6.0 | 0.00 | 0.00 | 0.00 | 62 | 1014.6 |
| 20260905083904 | 60 | 288 | 0.0 | 4.0 | 0.00 | 0.00 | 0.00 | 63 | 1014.7 |
| 20260905083801 | 60 | 281 | 0.0 | 4.0 | 0.00 | 0.00 | 0.00 | 62 | 1014.6 |
| 20260905083655 | 60 | 281 | 0.0 | 4.0 | 0.00 | 0.00 | 0.00 | 63 | 1014.6 |
| 20260905083553 | 60 | 281 | 1.0 | 4.0 | 0.00 | 0.00 | 0.00 | 63 | 1014.6 |
| 20260905083455 | 60 | 281 | 2.0 | 4.0 | 0.00 | 0.00 | 0.00 | 63 | 1014.7 |
| 20260905083422 | 60 | 280 | 2.0 | 4.0 | 0.00 | 0.00 | 0.00 | 62 | 1014.6 |
| 20260905083343 | 60 | 285 | 2.0 | 4.0 | 0.00 | 0.00 | 0.00 | 63 | 1014.6 |
| 20260905083321 | 60 | 284 | 2.0 | 5.0 | 0.00 | 0.00 | 0.00 | 63 | 1014.6 |
| 20260905083006 | 60 | 271 | 1.0 | 5.0 | 0.00 | 0.00 | 0.00 | 63 | 1014.6 |
| 20260905082944 | 60 | 284 | 1.0 | 5.0 | 0.00 | 0.00 | 0.00 | 63 | 1014.6 |
| 20260905082906 | 60 | 288 | 1.0 | 5.0 | 0.00 | 0.00 | 0.00 | 63 | 1014.6 |
| 20260905082844 | 60 | 284 | 1.0 | 5.0 | 0.00 | 0.00 | 0.00 | 63 | 1014.7 |
| 20260905082551 | 61 | 259 | 2.0 | 5.0 | 0.00 | 0.00 | 0.00 | 62 | 1014.6 |
| 20260905082529 | 61 | 254 | 2.0 | 5.0 | 0.00 | 0.00 | 0.00 | 63 | 1014.6 |
| 20260905082144 | 61 | 258 | 2.0 | 3.0 | 0.00 | 0.00 | 0.00 | 63 | 1014.6 |
| 20260905082044 | 61 | 271 | 2.0 | 3.0 | 0.00 | 0.00 | 0.00 | 63 | 1014.6 |
| 20260905081944 | 61 | 300 | 2.0 | 4.0 | 0.00 | 0.00 | 0.00 | 62 | 1014.6 |
| 20260905081846 | 61 | 259 | 2.0 | 4.0 | 0.00 | 0.00 | 0.00 | 63 | 1014.6 |
| 20260905081744 | 61 | 267 | 2.0 | 4.0 | 0.00 | 0.00 | 0.00 | 63 | 1014.6 |
| 20260905081701 | 61 | 267 | 2.0 | 4.0 | 0.00 | 0.00 | 0.00 | 63 | 1014.6 |
| 20260905081638 | 61 | 264 | 2.0 | 4.0 | 0.00 | 0.00 | 0.00 | 63 | 1014.7 |
| 20260905081615 | 61 | 292 | 2.0 | 4.0 | 0.00 | 0.00 | 0.00 | 63 | 1014.6 |
| 20260905081552 | 61 | 253 | 2.0 | 4.0 | 0.00 | 0.00 | 0.00 | 63 | 1014.6 |
| 20260905081515 | 61 | 268 | 2.0 | 4.0 | 0.00 | 0.00 | 0.00 | 63 | 1014.6 |
| 20260905081453 | 61 | 269 | 2.0 | 4.0 | 0.00 | 0.00 | 0.00 | 63 | 1014.6 |
| 20260905081431 | 61 | 261 | 1.0 | 4.0 | 0.00 | 0.00 | 0.00 | 63 | 1014.5 |
| 20260905081410 | 61 | 279 | 2.0 | 4.0 | 0.00 | 0.00 | 0.00 | 63 | 1014.5 |
| 20260905081348 | 61 | 259 | 1.0 | 4.0 | 0.00 | 0.00 | 0.00 | 63 | 1014.5 |
| 20260905081312 | 61 | 292 | 1.0 | 4.0 | 0.00 | 0.00 | 0.00 | 63 | 1014.5 |
| 20260905081023 | 61 | 278 | 2.0 | 4.0 | 0.00 | 0.00 | 0.00 | 63 | 1014.5 |
| 20260905080133 | 61 | 278 | 1.0 | 4.0 | 0.00 | 0.00 | 0.00 | 63 | 1014.5 |
| 20260905080033 | 61 | 315 | 1.0 | 4.0 | 0.00 | 0.00 | 0.00 | 63 | 1014.5 |
| 20260905075933 | 61 | 296 | 1.0 | 4.0 | 0.00 | 0.00 | 0.00 | 63 | 1014.5 |
| 20260905075840 | 61 | 250 | 1.0 | 5.0 | 0.00 | 0.00 | 0.00 | 63 | 1014.5 |